Calls for Service

Disclaimer: This information is not intended to be used as official crime data. This program does not provide information about all crimes, and excludes specific incidents such as sexual assaults and child abuse. The City of Conway Police Department makes every effort to produce and publish current and accurate information. No warranties, expressed or implied, are provided for the data herein, its use, or its interpretation. The services provided are for informational purposes only and should not be relied on for any type of legal action.

Loading calls...
Showing calls from previous 10 days
Call Number Case Number Address Call Time Incident Type
22-0904550 475 ROBINS ST 2022-09-25 15:22:36.483 DOMESTIC DISTURBANCE
22-0904549 132 I40EB 2022-09-25 15:17:36.857 AGENCY ASSIST
22-0904546 308 HELEN ST 2022-09-25 14:51:03.590 CHECK ON THE WELFARE
22-0904544 608 INGRAM VILLAGE DR 2022-09-25 14:45:30.960 CIVIL STAND BY
22-0904543 22-0904543 2695 DAVE WARD DR 2022-09-25 14:39:34.717 THEFT OF VEHICLE
22-0904541 4101 COLLEGE AV 2022-09-25 14:08:51.337 SUPPLEMENT REPORT CALL
22-0904538 1751 OLD MORRILTON HWY 2022-09-25 14:02:17.093 ACCIDENT - PERSONAL INJURY
22-0904533 2222 INDEPENDENCE AV 2022-09-25 12:50:20.193 DISTURBANCE
22-0904531 129 I40EB 2022-09-25 12:37:20.787 AGENCY ASSIST
22-0904530 1400 HARKRIDER ST 2022-09-25 12:36:50.680 FIRE DEPT ASSIST
22-0904527 114 DAVIS ST 2022-09-25 12:10:59.440 CITIZEN ASSIST
22-0904526 633 S COUNTRY CLUB RD 2022-09-25 12:08:28.303 CITIZEN ASSIST
22-0904525 22-0904525 815 DRAKE DR 2022-09-25 12:01:33.533 HARASSING COMMUNICATIONS
22-0904523 1501 HOGAN LN 2022-09-25 11:53:28.323 ACCIDENT - PERSONAL INJURY
22-0904522 1000 S AMITY RD 2022-09-25 11:47:29.400 SUPPLEMENT REPORT CALL
22-0904521 2222 INDEPENDENCE AV 2022-09-25 11:47:16.330 CIVIL STAND BY
22-0904520 114 DAVIS ST 2022-09-25 11:44:21.010 CITIZEN ASSIST
22-0904518 22-0904518 1215 ADDY BROOK ST 2022-09-25 11:19:02.653 DOMESTIC DISTURBANCE
22-0904517 1901 E OAK ST 2022-09-25 11:12:19.793 PEDDLER
22-0904516 500 OAK ST 2022-09-25 10:37:53.533 ATTEMPT TO CONTACT
22-0904513 801 HOGAN LN 2022-09-25 10:32:14.790 CHECK ON THE WELFARE
22-0904512 2310 ROBINSON AV 2022-09-25 10:26:06.060 ATTEMPT TO CONTACT
22-0904511 500 ELSINGER BLVD 2022-09-25 10:23:29.380 BATTERY REPORT
22-0904509 1260 S AMITY RD 2022-09-25 10:10:10.323 FOUND PROPERTY
22-0904507 350 E OAK ST 2022-09-25 09:59:40.213 ACCIDENT - PROPERTY DAMAGE
22-0904506 1105 PRAIRIE ST 2022-09-25 09:56:53.100 ATTEMPT TO CONTACT
22-0904502 1105 PRAIRIE ST 2022-09-25 09:46:42.047 DISTURBANCE
22-0904500 22-0904500 2410 BROADVIEW AV 2022-09-25 09:02:07.270 FIRE DEPT ASSIST
22-0904492 1030 COLLIER DR 2022-09-25 08:07:44.143 ALARM
22-0904491 1210 S AMITY RD 2022-09-25 08:05:15.167 ALARM
22-0904490 401 2ND ST 2022-09-25 07:55:44.903 LOUD NOISE-MUSIC
22-0904485 801 S SALEM RD 2022-09-25 06:30:13.210 RECKLESS DRIVER
22-0904484 1100 BRUCE ST 2022-09-25 04:57:45.440 TRAFFIC PROBLEM-CONTROL
22-0904481 1125 TURNBERRY DR 2022-09-25 03:01:10.410 ALARM
22-0904480 2270 MEADOWLAKE RD 2022-09-25 02:46:20.413 LOUD NOISE-MUSIC
22-0904479 205 E OAK ST 2022-09-25 02:24:51.087 RECKLESS DRIVER
22-0904475 1105 PRAIRIE ST 2022-09-25 00:53:12.317 ATTEMPT TO CONTACT
22-0904474 600 WESTHAVEN DR 2022-09-25 00:39:02.730 LOUD NOISE-MUSIC
22-0904472 815 E OAK ST 2022-09-25 00:28:49.930 CHECK ON THE WELFARE
22-0904468 530 S DONAGHEY AV 2022-09-25 00:05:46.030 LOUD NOISE-MUSIC
22-0904467 2015 CLEVELAND AV 2022-09-24 23:51:23.920 ACCIDENT - PROPERTY DAMAGE
22-0904466 22-0904466 1155 SKYLINE DR 2022-09-24 23:45:59.700 UNAUTHORIZED USE OF MOTOR VEHICLE
22-0904464 22-0904464 815 DRAKE DR 2022-09-24 23:35:06.887 STALKING
22-0904463 860 S SALEM RD 2022-09-24 23:28:44.077 OPEN DOOR/WINDOW/FENCE
22-0904461 22-0904461 1155 SKYLINE DR 2022-09-24 23:02:32.317 THEFT OF PROPERTY
22-0904460 1450 JOYNER DR 2022-09-24 22:57:07.017 SHOTS FIRED
22-0904459 1610 WESTLAKE DR 2022-09-24 22:54:20.080 ACCIDENT - PRIVATE PROPERTY
22-0904457 2270 MEADOWLAKE RD 2022-09-24 22:44:37.277 LOUD NOISE-MUSIC
22-0904456 3091 NAPA VALLEY DR 2022-09-24 22:31:53.963 LOUD NOISE-MUSIC
22-0904454 22-0904454 380 HARKRIDER ST 2022-09-24 22:09:00.830 SUSPICIOUS VEHICLE
22-0904452 835 S DONAGHEY AV 2022-09-24 21:49:42.960 PARKING VIOLATION
22-0904451 2370 SANDERS ST 2022-09-24 21:47:12.970 CHECK ON THE WELFARE
22-0904450 22-0904450 2015 CLEVELAND AV 2022-09-24 21:46:14.220 INTOXICATED DRIVER
22-0904448 1915 ERBACH ST 2022-09-24 21:24:58.720 TRESPASSING
22-0904445 550 CENTRAL LANDING BLVD 2022-09-24 21:04:08.710 SUSPICIOUS PERSON
22-0904444 1155 SKYLINE DR 2022-09-24 20:50:30.620 THEFT OF PROPERTY
22-0904441 971 E OAK ST 2022-09-24 20:36:09.193 ACCIDENT - PERSONAL INJURY
22-0904440 875 SKYLINE DR 2022-09-24 20:34:41.000 CHECK ON THE WELFARE
22-0904439 22-0904439 380 HARKRIDER ST 2022-09-24 20:23:55.760 CHECKING PERSON
22-0904437 1605 CLIFTON ST 2022-09-24 20:19:34.603 CHECK ON THE WELFARE
22-0904436 22-0904436 305 BRUCE ST 2022-09-24 20:18:47.613 CHECK ON THE WELFARE
22-0904434 727 S HARKRIDER DR 2022-09-24 20:08:39.900 ATTEMPT TO CONTACT
22-0904432 1351 EXCHANGE AV 2022-09-24 19:36:35.460 DOMESTIC DISTURBANCE
22-0904430 3820 DAVE WARD DR 2022-09-24 19:27:25.050 ALARM
22-0904429 801 DONAGHEY AV 2022-09-24 19:19:19.637 SUPPLEMENT REPORT CALL
22-0904428 22-0904428 1560 RACHEL DR 2022-09-24 19:17:34.297 TRESPASSING
22-0904426 1100 S AMITY RD 2022-09-24 18:45:20.837 CHECK ON THE WELFARE
22-0904425 2505 E OAK ST 2022-09-24 18:36:10.797 ATTEMPT TO CONTACT
22-0904423 125 I40WB 2022-09-24 18:17:08.350 ATTEMPT TO CONTACT
22-0904421 500 BRUCE ST 2022-09-24 17:56:57.150 SUPPLEMENT REPORT CALL
22-0904418 930 WINEBERRY RD 2022-09-24 17:53:50.717 SUPPLEMENT REPORT CALL
22-0904417 550 SKYLINE DR 2022-09-24 17:53:17.397 INTOXICATED PERSON
22-0904416 22-0904416 3900 DAVE WARD DR 2022-09-24 17:50:09.393 SHOPLIFTING
22-0904415 1099 S EAST GERMAN LN 2022-09-24 17:30:24.230 TRAFFIC PROBLEM-CONTROL
22-0904414 704 4TH AV 2022-09-24 17:28:17.827 FIRE DEPT ASSIST
22-0904411 1638 CLIFTON ST 2022-09-24 17:26:05.680 DISTURBANCE
22-0904410 22-0904410 124 I40EB 2022-09-24 17:11:24.783 AGENCY ASSIST
22-0904408 811 E OAK ST 2022-09-24 16:52:55.093 DISTURBANCE
22-0904406 500 BRUCE ST 2022-09-24 16:35:45.593 SUPPLEMENT REPORT CALL
22-0904405 22-0904405 2207 BROADVIEW AV 2022-09-24 16:26:45.937 UNKNOWN TROUBLE
22-0904404 1400 PYRAMID DR 2022-09-24 16:23:38.973 BREAKING OR ENTERING
22-0904403 1100 WINFIELD ST 2022-09-24 16:05:39.950 STALLED VEHICLE
22-0904402 22-0904402 1155 SKYLINE DR 2022-09-24 16:05:13.417 CHECK ON THE WELFARE
22-0904398 1000 S AMITY RD 2022-09-24 15:30:52.123 ACCIDENT - PROPERTY DAMAGE
22-0904397 3300 PEBBLE BEACH DR 2022-09-24 15:25:17.357 PARKING VIOLATION
22-0904396 930 WINEBERRY RD 2022-09-24 15:22:06.420 ACCIDENT - HIT AND RUN
22-0904395 22-0904395 1900 TYLER ST 2022-09-24 14:56:08.907 THEFT OF PROPERTY
22-0904394 1200 E DAVE WARD DR 2022-09-24 14:48:15.693 ACCIDENT - HIT AND RUN
22-0904392 22-0904392 500 BRUCE ST 2022-09-24 14:46:43.133 ACCIDENT - PROPERTY DAMAGE
22-0904391 1900 TYLER ST 2022-09-24 14:36:35.377 ATTEMPT TO CONTACT
22-0904390 22-0904390 2255 STURGIS RD 2022-09-24 14:30:34.773 BATTERY REPORT
22-0904389 475 ROBINS ST 2022-09-24 14:10:31.603 FIRE DEPT ASSIST
22-0904386 2505 BLANEY HILL RD 2022-09-24 14:01:36.473 HARASSMENT
22-0904385 4101 COLLEGE AV 2022-09-24 13:58:49.093 ACCIDENT - PROPERTY DAMAGE
22-0904384 1105 PRAIRIE ST 2022-09-24 13:47:34.453 CIVIL STAND BY
22-0904382 22-0904382 1725 BRUCE ST 2022-09-24 13:24:45.247 DOMESTIC DISTURBANCE
22-0904381 22-0904381 1620 MIDDLE RD 2022-09-24 13:23:34.377 BREAKING OR ENTERING
22-0904379 916 E OAK ST 2022-09-24 13:20:43.050 ACCIDENT - PRIVATE PROPERTY
22-0904378 2901 TYLER ST 2022-09-24 13:15:46.833 COMPUTER CRIMES
22-0904377 2022-09-24 13:08:46.420 MISSING PERSON
22-0904376 22-0904376 1025 S DONAGHEY AV 2022-09-24 12:47:33.340 CRIMINAL MISCHIEF
22-0904375 1155 SKYLINE DR 2022-09-24 12:46:20.457 SUSPICIOUS PERSON
22-0904374 1250 S AMITY RD 2022-09-24 12:39:32.957 INTOXICATED DRIVER
22-0904373 407 HEREFORD ST 2022-09-24 12:35:43.547 TRESPASSING
22-0904369 1815 DRURY LN 2022-09-24 12:10:56.180 SUPPLEMENT REPORT CALL
22-0904368 475 ROBINS ST 2022-09-24 11:49:02.430 TRESPASSING
22-0904366 1172 E OAK ST 2022-09-24 11:35:16.987 SUSPICIOUS PERSON
22-0904364 2505 SALEM RD 2022-09-24 11:30:54.063 ALARM
22-0904363 22-0904363 3900 DAVE WARD DR 2022-09-24 11:27:52.597 FRAUD
22-0904362 901 E OAK ST 2022-09-24 11:05:38.477 CHECK ON THE WELFARE
22-0904357 2100 MEADOWLAKE RD 2022-09-24 10:15:50.217 FOUND PROPERTY
22-0904355 22-0904355 1408 DONAGHEY AV 2022-09-24 10:01:42.537 DISTURBANCE
22-0904354 814 E OAK ST 2022-09-24 09:53:29.563 ACCIDENT - PRIVATE PROPERTY
22-0904353 1445 HOGAN LN 2022-09-24 09:50:44.093 SUSPICIOUS PERSON
22-0904352 2230 NATURE TRL 2022-09-24 09:48:40.403 CIVIL STAND BY
22-0904347 22-0904347 2015 RICH SMITH LN 2022-09-24 08:40:24.720 DOMESTIC DISTURBANCE
22-0904343 635 NORTHWIND CIR 2022-09-24 08:05:44.873 ALARM
22-0904337 1001 EAST GERMAN LN 2022-09-24 07:49:45.333 ACCIDENT - PROPERTY DAMAGE
22-0904334 198 RUFUS CIR 2022-09-24 07:22:54.910 ALARM
22-0904333 1105 DEER ST 2022-09-24 07:21:16.073 ALARM
22-0904332 855 S SALEM RD 2022-09-24 07:06:37.500 ATTEMPT TO CONTACT
22-0904331 3155 DAVE WARD DR 2022-09-24 07:01:39.847 ALARM
22-0904330 635 NORTHWIND CIR 2022-09-24 07:00:14.563 ALARM
22-0904329 3400 IRBY DR 2022-09-24 06:50:47.227 ALARM
22-0904325 244 OAK ST 2022-09-24 04:39:30.710 CHECKING PERSON
22-0904324 895 OAK ST 2022-09-24 04:35:54.130 CHECKING PERSON
22-0904323 806 GARLAND ST 2022-09-24 04:29:56.750 CHECKING PERSON
22-0904321 3700 JEANNA DR 2022-09-24 04:02:03.933 LOUD NOISE-MUSIC
22-0904319 2820 COLLEGE AV 2022-09-24 03:20:57.530 REPOSSESSION
22-0904318 22-0904318 1650 FREYALDENHOVEN LN 2022-09-24 02:56:14.627 SUSPICIOUS PERSON
22-0904317 22-0904317 3015 PEBBLE BEACH DR 2022-09-24 02:33:21.417 DOMESTIC DISTURBANCE
22-0904313 2360 SANDERS ST 2022-09-24 01:59:01.810 CIVIL MATTER
22-0904311 300 S DONAGHEY AV 2022-09-24 01:13:44.740 CHECKING PERSON
22-0904310 700 FRONT ST 2022-09-24 01:10:48.880 CHECKING VEHICLE
22-0904307 9 THOUSAND OAKS CIR 2022-09-24 00:51:53.957 ATTEMPT TO CONTACT
22-0904306 101 OAK ST 2022-09-24 00:13:36.853 CHECKING VEHICLE
22-0904305 22-0904305 1095 SKYLINE DR 2022-09-24 00:12:48.000 TERRORISTIC THREATENING
22-0904304 1615 MANOR ST 2022-09-23 23:58:51.323 BARKING DOG COMPLAINT
22-0904303 225 ROBINS ST 2022-09-23 23:57:21.877 BREAKING OR ENTERING
22-0904302 2325 DAVE WARD DR 2022-09-23 23:51:05.880 CIVIL MATTER
22-0904300 22-0904300 703 3RD AV 2022-09-23 23:45:57.480 ATTEMPT TO CONTACT
22-0904296 502 E 6TH ST 2022-09-23 23:18:37.587 CHECKING VEHICLE
22-0904295 1615 MANOR ST 2022-09-23 23:17:30.940 BARKING DOG COMPLAINT
22-0904292 22-0904292 475 ROBINS ST 2022-09-23 22:51:13.580 DOMESTIC DISTURBANCE
22-0904291 22-0904291 375 E OAK ST 2022-09-23 22:33:27.390 TRESPASSING
22-0904289 860 ELSINGER BLVD 2022-09-23 22:23:26.963 CHECKING PERSON
22-0904288 1615 MANOR ST 2022-09-23 22:22:23.663 BARKING DOG COMPLAINT
22-0904286 1500 WINTERBROOK DR 2022-09-23 22:15:27.190 LOUD NOISE-MUSIC
22-0904284 2302 COLLEGE AV 2022-09-23 22:12:02.903 DISTURBANCE
22-0904282 22-0904282 3900 DAVE WARD DR 2022-09-23 21:50:56.473 SHOPLIFTING
22-0904278 22-0904278 2310 ROBINSON AV 2022-09-23 21:20:06.733 FOUND PROPERTY
22-0904276 22-0904276 716 OAK ST 2022-09-23 20:56:50.747 THEFT OF PROPERTY
22-0904275 22-0904275 501 ELSINGER BLVD 2022-09-23 20:30:01.823 TERRORISTIC THREATENING
22-0904274 407 HEREFORD ST 2022-09-23 20:29:07.340 CHECK ON THE WELFARE
22-0904273 22-0904273 1100 BRUCE ST 2022-09-23 20:23:51.617 MISDEMEANOR WARRANT SERVICE
22-0904272 217 S CENTER ST 2022-09-23 20:23:20.397 DISTURBANCE
22-0904271 1020 GARLAND ST 2022-09-23 20:22:03.680 TRESPASSING
22-0904270 710 S SALEM RD 2022-09-23 20:21:20.130 INTOXICATED DRIVER
22-0904269 801 DONAGHEY AV 2022-09-23 20:10:45.690 SUPPLEMENT REPORT CALL
22-0904268 22-0904268 3900 DAVE WARD DR 2022-09-23 19:56:38.863 SHOPLIFTING
22-0904267 2501 DAVE WARD DR 2022-09-23 19:54:29.687 SHOTS FIRED
22-0904266 22-0904266 256 OAK ST 2022-09-23 19:51:12.607 CHECK ON THE WELFARE
22-0904265 2215 APPLE BLOSSOM 2022-09-23 19:48:36.020 SUSPICIOUS VEHICLE
22-0904264 2505 E OAK ST 2022-09-23 19:41:57.610 RECKLESS DRIVER
22-0904263 22-0904263 1105 PRAIRIE ST 2022-09-23 19:26:34.697 INTERFERENCE WITH CUSTODY
22-0904262 1900 TYLER ST 2022-09-23 19:22:32.487 THEFT OF PROPERTY
22-0904261 3240 STERMER RD 2022-09-23 19:19:04.560 RUNAWAY
22-0904260 22-0904260 3006 PEBBLE BEACH DR 2022-09-23 19:15:34.623 AGENCY ASSIST
22-0904259 985 JOHN WILLIAM DR 2022-09-23 19:10:56.840 ATTEMPT TO CONTACT
22-0904257 201 SKYLINE DR 2022-09-23 19:06:08.670 CHECK ON THE WELFARE
22-0904256 1632 DONAGHEY AV 2022-09-23 19:04:25.287 SHOPLIFTING
22-0904255 500 E OAK ST 2022-09-23 19:03:37.340 ACCIDENT - HIT AND RUN
22-0904254 22-0904254 1790 ANGELINE DR 2022-09-23 18:59:52.603 CHECK ON THE WELFARE
22-0904251 850 OAK ST 2022-09-23 18:49:36.123 FIRE DEPT ASSIST
22-0904250 2270 MEADOWLAKE RD 2022-09-23 18:48:24.837 LOUD NOISE-MUSIC
22-0904247 22-0904247 1527 CLIFTON ST 2022-09-23 18:29:50.987 CRIMINAL MISCHIEF
22-0904241 755 CLUB LN 2022-09-23 17:40:24.010 ACCIDENT - PROPERTY DAMAGE
22-0904240 505 E DAVE WARD DR 2022-09-23 17:35:32.390 ACCIDENT - PROPERTY DAMAGE
22-0904239 1105 PRAIRIE ST 2022-09-23 17:35:04.680 ATTEMPT TO CONTACT
22-0904238 811 E OAK ST 2022-09-23 17:33:17.743 ACCIDENT - PROPERTY DAMAGE
22-0904237 1660 JACKSON DR 2022-09-23 17:30:30.317 CHECK ON THE WELFARE
22-0904235 22-0904235 3900 DAVE WARD DR 2022-09-23 17:25:09.523 SHOPLIFTING
22-0904233 1900 HOGAN LN 2022-09-23 17:17:43.040 ACCIDENT - PROPERTY DAMAGE
22-0904232 1200 DAVE WARD DR 2022-09-23 17:01:29.243 SUPPLEMENT REPORT CALL
22-0904230 22-0904230 2445 CHRISTINA LN 2022-09-23 16:54:30.583 CRIMINAL MISCHIEF
22-0904229 134 HARKRIDER ST 2022-09-23 16:53:13.347 ATTEMPT TO CONTACT
22-0904227 2745 OLD MORRILTON HWY 2022-09-23 16:50:45.433 SUPPLEMENT REPORT CALL
22-0904225 22-0904225 1 CADRON SETTLEMENT PARK RD 2022-09-23 16:33:51.300 THEFT OF PROPERTY
22-0904223 22-0904223 1025 PARKWAY ST 2022-09-23 16:30:05.513 INTOXICATED PERSON
22-0904222 2745 OLD MORRILTON HWY 2022-09-23 16:19:29.960 FOUND PROPERTY
22-0904221 3090 PEBBLE BEACH DR 2022-09-23 16:17:57.187 INTERFERENCE WITH CUSTODY
22-0904219 501 ELSINGER BLVD 2022-09-23 16:13:08.360 ACCIDENT - PRIVATE PROPERTY
22-0904218 27 HUMMINGBIRD LN 2022-09-23 15:41:44.883 FRAUD
22-0904216 2300 PRINCE ST 2022-09-23 15:29:14.347 RECKLESS DRIVER
22-0904215 2499 JOHN MCCRACKEN DR 2022-09-23 15:28:32.550 SUPPLEMENT REPORT CALL
22-0904213 1318 CLAYTON ST 2022-09-23 15:15:22.780 DISTURBANCE
22-0904212 22-0904212 1105 PRAIRIE ST 2022-09-23 15:08:25.717 FOUND PROPERTY
22-0904210 21 FAIR OAKS DR 2022-09-23 14:47:50.363 ATTEMPT TO CONTACT
22-0904209 999 FARRIS RD 2022-09-23 14:41:48.370 SUPPLEMENT REPORT CALL
22-0904204 2015 RICH SMITH LN 2022-09-23 14:24:27.037 NO CONTACT ORDER VIOLATION
22-0904203 1044 S DONAGHEY AV 2022-09-23 14:21:46.003 STALLED VEHICLE
22-0904202 501 ELSINGER BLVD 2022-09-23 14:18:36.947 ACCIDENT - PRIVATE PROPERTY
22-0904200 22-0904200 870 ENTERPRISE AV 2022-09-23 14:10:25.510 FRAUD
22-0904199 401 6TH ST 2022-09-23 14:05:24.667 CHECK ON THE WELFARE
22-0904196 1895 E OAK ST 2022-09-23 13:44:04.570 SUPPLEMENT REPORT CALL
22-0904194 1705 S SALEM RD 2022-09-23 13:39:58.380 REPOSSESSION
22-0904192 502 FRONT ST 2022-09-23 13:37:03.220 ACCIDENT - HIT AND RUN
22-0904191 855 AMITY RD 2022-09-23 13:35:14.940 ACCIDENT - PRIVATE PROPERTY
22-0904190 3650 JEANNA DR 2022-09-23 13:31:38.493 ATTEMPT TO CONTACT
22-0904189 855 E OAK ST 2022-09-23 13:27:59.123 ACCIDENT - PROPERTY DAMAGE
22-0904187 1155 SKYLINE DR 2022-09-23 13:19:05.303 ACCIDENT - PRIVATE PROPERTY
22-0904184 22-0904184 1309 CLIFTON ST 2022-09-23 12:45:15.033 THEFT OF PROPERTY
22-0904181 2003 CAPEWOOD DR 2022-09-23 12:31:42.147 ALARM
22-0904178 22-0904178 1090 SKYLINE DR 2022-09-23 12:24:05.320 THEFT OF PROPERTY
22-0904177 22-0904177 855 CORDOBA DR 2022-09-23 12:04:51.880 THEFT OF PROPERTY
22-0904176 3300 PEBBLE BEACH DR 2022-09-23 11:50:55.033 VEHICLE TOW
22-0904175 3300 PEBBLE BEACH DR 2022-09-23 11:49:08.313 VEHICLE TOW
22-0904174 2051 HARKRIDER ST 2022-09-23 11:48:09.160 SUPPLEMENT REPORT CALL
22-0904171 2500 OLD MORRILTON HWY 2022-09-23 11:09:32.053 CHECK ON THE WELFARE
22-0904170 22-0904170 2300 PRINCE ST 2022-09-23 11:06:20.680 K9 SEARCH-REPORT
22-0904169 1155 SKYLINE DR 2022-09-23 11:04:17.993 FIRE DEPT ASSIST
22-0904167 3701 DAVE WARD DR 2022-09-23 11:02:15.980 STALLED VEHICLE
22-0904165 635 DAVE WARD DR 2022-09-23 10:58:00.960 TERRORISTIC THREATENING
22-0904164 1306 BELLEMEADE DR 2022-09-23 10:55:27.773 ATTEMPT TO CONTACT
22-0904162 1525 CLIFTON ST 2022-09-23 10:47:20.303 HARASSING COMMUNICATIONS
22-0904160 22-0904160 800 PADGETT RD 2022-09-23 10:43:58.287 DISORDERLY CONDUCT
22-0904159 1105 PRAIRIE ST 2022-09-23 10:31:12.400 ATTEMPT TO CONTACT
22-0904157 1901 E OAK ST 2022-09-23 10:20:20.370 RECKLESS DRIVER
22-0904156 870 ENTERPRISE AV 2022-09-23 10:14:35.263 FRAUD
22-0904151 2923 PEBBLE BEACH DR 2022-09-23 09:31:45.653 INTERFERENCE WITH CUSTODY
22-0904148 250 S HOGAN LN 2022-09-23 09:22:30.643 FIRE DEPT ASSIST
22-0904146 3000 PEBBLE BEACH DR 2022-09-23 09:06:54.180 CIVIL MATTER
22-0904145 22-0904145 800 S HARKRIDER DR 2022-09-23 08:57:20.117 FIRE DEPT ASSIST
22-0904142 22-0904142 615 3RD AV 2022-09-23 08:34:18.793 DISTURBANCE
22-0904139 1810 OLD MORRILTON HWY 2022-09-23 08:09:07.307 TRESPASSING
22-0904137 707 ROBINS ST 2022-09-23 08:07:02.137 TRESPASSING
22-0904136 22-0904136 899 SIMON ST 2022-09-23 07:58:23.913 SUPPLEMENT REPORT CALL
22-0904135 3190 PEBBLE BEACH DR 2022-09-23 07:49:59.353 THEFT OF VEHICLE
22-0904132 608 OAK ST 2022-09-23 06:44:59.620 ALARM
22-0904131 1340 STONE CREST DR 2022-09-23 06:09:51.143 HARASSMENT
22-0904130 2400 MARKET PLAZA DR 2022-09-23 06:04:58.877 REPOSSESSION
22-0904129 715 3RD AV 2022-09-23 06:04:06.023 REPOSSESSION
22-0904128 1515 DAVE WARD DR 2022-09-23 05:48:54.617 CHECKING PERSON
22-0904126 22-0904126 3430 IRBY DR 2022-09-23 05:02:02.740 ATTEMPT TO CONTACT
22-0904125 2050 DAVE WARD DR 2022-09-23 04:13:14.870 CHECKING PERSON
22-0904124 1155 SKYLINE DR 2022-09-23 03:53:09.247 VEHICLE TOW
22-0904123 1161 OLD MORRILTON HWY 2022-09-23 03:48:06.810 ALARM
22-0904122 1155 SKYLINE DR 2022-09-23 03:32:21.793 VEHICLE TOW
22-0904121 350 SALEM RD 2022-09-23 03:17:47.730 ALARM
22-0904118 2603 MEADOWLAKE RD 2022-09-23 02:47:06.997 TRESPASSING
22-0904115 22-0904115 301 E DAVE WARD DR 2022-09-23 01:57:09.720 ATTEMPT TO CONTACT
22-0904114 22-0904114 1050 FRONT ST 2022-09-23 01:49:27.127 CHECKING VEHICLE
22-0904112 320 CHALICE DR 2022-09-23 01:36:35.150 ALARM
22-0904110 804 HOGAN LN 2022-09-23 01:27:52.867 ALARM - BANK
22-0904109 2399 HOGAN LN 2022-09-23 01:14:32.980 CHECKING VEHICLE
22-0904106 2603 MEADOWLAKE RD 2022-09-23 01:01:56.867 ATTEMPT TO CONTACT
22-0904105 475 ROBINS ST 2022-09-23 01:00:49.097 CHECKING VEHICLE
22-0904104 1355 EXCHANGE AV 2022-09-23 00:55:42.110 TRESPASSING
22-0904103 6195 DAVE WARD DR 2022-09-23 00:49:30.777 CHECKING VEHICLE
22-0904102 1155 SKYLINE DR 2022-09-23 00:41:40.407 VEHICLE TOW
22-0904100 2280 SANDERS ST 2022-09-23 00:29:16.490 ALARM
22-0904096 22-0904096 799 S DAVIS ST 2022-09-23 00:03:04.137 FOUND PROPERTY
22-0904093 250 S HOGAN LN 2022-09-22 23:44:10.607 TRAFFIC PROBLEM-CONTROL
22-0904092 22-0904092 500 SOUTH GERMAN LN 2022-09-22 23:42:39.650 MISDEMEANOR WARRANT SERVICE
22-0904086 22-0904086 801 HOGAN LN 2022-09-22 23:00:20.873 ATTEMPT TO CONTACT
22-0904082 1705 S SALEM RD 2022-09-22 22:43:58.387 VEHICLE TOW
22-0904081 1120 EAST GERMAN LN 2022-09-22 22:39:58.607 ALARM
22-0904080 2090 OLD MORRILTON HWY 2022-09-22 22:30:57.297 SUSPICIOUS PERSON
22-0904077 22-0904077 801 HOGAN LN 2022-09-22 22:13:08.983 CHECKING VEHICLE
22-0904076 22-0904076 1090 SKYLINE DR 2022-09-22 22:12:52.747 THEFT OF PROPERTY
22-0904071 1705 S SALEM RD 2022-09-22 21:43:57.307 VEHICLE TOW
22-0904070 1705 S SALEM RD 2022-09-22 21:42:39.387 VEHICLE TOW
22-0904069 1155 SKYLINE DR 2022-09-22 21:40:41.390 CHECKING PERSON
22-0904068 1194 COUNTRY CLUB RD 2022-09-22 21:37:02.420 CHECK ON THE WELFARE
22-0904064 123 I40EB 2022-09-22 21:18:22.013 CHECKING PERSON
22-0904063 22-0904063 3900 DAVE WARD DR 2022-09-22 21:03:40.070 SHOPLIFTING
22-0904059 1655 DAVE WARD DR 2022-09-22 20:42:39.097 TRAFFIC PROBLEM-CONTROL
22-0904048 1325 MUSEUM RD 2022-09-22 19:57:22.893 SUSPICIOUS PERSON
22-0904046 1400 HARKRIDER ST 2022-09-22 19:46:59.603 CHECK ON THE WELFARE
22-0904045 1105 PRAIRIE ST 2022-09-22 19:37:34.560 ATTEMPT TO CONTACT
22-0904043 245 NIAGRA FALLS 2022-09-22 18:46:24.677 ATTEMPT TO CONTACT
22-0904042 475 ROBINS ST 2022-09-22 18:41:38.497 TRESPASSING
22-0904041 22-0904041 205 E OAK ST 2022-09-22 18:23:50.280 ATTEMPT TO CONTACT
22-0904040 1155 SKYLINE DR 2022-09-22 18:21:17.360 AGENCY ASSIST
22-0904038 1025 S AMITY RD 2022-09-22 18:13:47.957 CHECK ON THE WELFARE
22-0904037 370 S DAVIS ST 2022-09-22 18:09:38.300 DISTURBANCE
22-0904035 1901 E OAK ST 2022-09-22 17:56:30.287 ACCIDENT - PROPERTY DAMAGE
22-0904034 875 SKYLINE DR 2022-09-22 17:55:36.890 TRESPASSING
22-0904033 1155 SKYLINE DR 2022-09-22 17:49:42.700 SUSPICIOUS PERSON
22-0904032 1640 DAVIS ST 2022-09-22 17:37:04.367 BARKING DOG COMPLAINT
22-0904031 505 SALEM RD 2022-09-22 17:35:10.430 ROAD RAGE
22-0904028 3725 COLLEGE AV 2022-09-22 17:17:45.467 TERRORISTIC THREATENING
22-0904027 22-0904027 375 MONROE ST 2022-09-22 17:12:22.197 HARASSING COMMUNICATIONS
22-0904026 1001 MCNUTT RD 2022-09-22 17:09:20.580 FRAUD
22-0904025 2022-09-22 17:06:40.690 RECOVERED VEHICLE
22-0904024 260 SALEM RD 2022-09-22 17:03:44.233 CHECK ON THE WELFARE
22-0904023 3300 PEBBLE BEACH DR 2022-09-22 16:54:51.460 VEHICLE TOW
22-0904022 22-0904022 475 ROBINS ST 2022-09-22 16:51:47.850 CRIMINAL MISCHIEF
22-0904021 3300 PEBBLE BEACH DR 2022-09-22 16:49:19.320 VEHICLE TOW
22-0904020 700 E DAVE WARD DR 2022-09-22 16:47:25.310 CHECK ON THE WELFARE
22-0904019 22-0904019 805 3RD AV 2022-09-22 16:46:40.337 CHECKING PERSON
22-0904018 22-0904018 1310 JOSITA CIR 2022-09-22 16:44:32.627 THEFT OF PROPERTY
22-0904017 2840 DAVE WARD DR 2022-09-22 16:40:32.130 SUPPLEMENT REPORT CALL
22-0904015 1200 HUNTER ST 2022-09-22 16:34:14.107 ATTEMPT TO CONTACT
22-0904012 971 E OAK ST 2022-09-22 16:17:10.053 ACCIDENT - PERSONAL INJURY
22-0904011 22-0904011 2550 PRINCE ST 2022-09-22 16:13:42.390 ATTEMPT TO CONTACT
22-0904010 580 E DAVE WARD DR 2022-09-22 16:04:55.487 CHECK ON THE WELFARE
22-0904009 3930 SYDNEY DR 2022-09-22 16:02:11.793 ATTEMPT TO CONTACT
22-0904008 607 OAK ST 2022-09-22 15:55:32.990 SUSPICIOUS PERSON
22-0904007 22-0904007 1152 HUNTER ST 2022-09-22 15:48:28.347 BURGLARY
22-0904004 1371 COLLEGE AV 2022-09-22 15:42:46.240 ALARM - HOLD UP or PANIC
22-0904002 22-0904002 475 ROBINS ST 2022-09-22 15:19:18.663 ATTEMPT TO CONTACT
22-0903998 22-0903998 500 SOUTH GERMAN LN 2022-09-22 15:13:27.860 MISDEMEANOR WARRANT SERVICE
22-0903996 22-0903996 1125 INGRAM ST 2022-09-22 15:12:18.797 ATTEMPT TO CONTACT
22-0903992 2401 CHRISTINA LN 2022-09-22 14:53:22.667 ACCIDENT - PRIVATE PROPERTY
22-0903991 22-0903991 150 E SIEBENMORGEN RD 2022-09-22 14:50:16.700 NO CONTACT ORDER VIOLATION
22-0903989 2022-09-22 14:43:45.937 RECOVERED PROPERTY
22-0903988 1090 SKYLINE DR 2022-09-22 14:36:56.503 ATTEMPT TO CONTACT
22-0903987 1300 E DAVE WARD DR 2022-09-22 14:29:21.130 SUPPLEMENT REPORT CALL
22-0903984 999 FARRIS RD 2022-09-22 13:59:44.120 ACCIDENT - PROPERTY DAMAGE
22-0903983 701 MONROE ST 2022-09-22 13:49:28.830 SUPPLEMENT REPORT CALL
22-0903980 5140 BURNT PINE DR 2022-09-22 13:42:31.873 ALARM
22-0903979 708 3RD AV 2022-09-22 13:41:47.347 TERRORISTIC THREATENING
22-0903978 820 E OAK ST 2022-09-22 13:40:36.963 TRAFFIC PROBLEM-CONTROL
22-0903977 1200 E DAVE WARD DR 2022-09-22 13:40:07.033 ACCIDENT - PROPERTY DAMAGE
22-0903976 2113 PRINCE ST 2022-09-22 13:37:34.287 ATTEMPT TO CONTACT
22-0903975 1025 S AMITY RD 2022-09-22 13:29:48.017 SUPPLEMENT REPORT CALL
22-0903974 619 DAVIS ST 2022-09-22 13:20:46.663 SUPPLEMENT REPORT CALL
22-0903972 401 E OAK ST 2022-09-22 13:13:37.593 ATTEMPT TO CONTACT
22-0903971 22-0903971 2255 STURGIS RD 2022-09-22 12:59:07.207 AGENCY ASSIST
22-0903970 1612 CHERRY ST 2022-09-22 12:57:13.477 ATTEMPT TO CONTACT
22-0903969 1157 WATKINS ST 2022-09-22 12:54:34.937 SUPPLEMENT REPORT CALL
22-0903968 215 SKYLINE DR 2022-09-22 12:50:51.723 ATTEMPT TO CONTACT
22-0903965 1325 OLD MORRILTON HWY 2022-09-22 12:46:08.780 ACCIDENT - PROPERTY DAMAGE
22-0903963 1901 E OAK ST 2022-09-22 12:37:21.103 STALLED VEHICLE
22-0903962 2745 CARL STUART ST 2022-09-22 12:29:36.117 ACCIDENT - PRIVATE PROPERTY
22-0903960 2022-09-22 12:15:32.303 ATTEMPT TO CONTACT
22-0903958 10 HAWTHORNE DR 2022-09-22 11:43:21.440 ATTEMPT TO CONTACT
22-0903957 22-0903957 500 SOUTH GERMAN LN 2022-09-22 11:39:35.347 MISDEMEANOR WARRANT SERVICE
22-0903955 2775 SILVER CREST DR 2022-09-22 11:37:03.433 CIVIL MATTER
22-0903954 2302 COLLEGE AV 2022-09-22 11:27:37.067 PARKING VIOLATION
22-0903953 530 S DONAGHEY AV 2022-09-22 11:27:09.820 ACCIDENT - PRIVATE PROPERTY
22-0903951 475 ROBINS ST 2022-09-22 11:24:05.160 PROPERTY DAMAGE
22-0903947 1775 OLD MORRILTON HWY 2022-09-22 11:00:31.323 DISTURBANCE
22-0903946 1127 WOODSIDE DR 2022-09-22 10:54:59.303 DISTURBANCE
22-0903945 1270 FACTORY ST 2022-09-22 10:54:38.603 SUPPLEMENT REPORT CALL
22-0903943 1622 CHERRY ST 2022-09-22 10:46:47.873 ATTEMPT TO CONTACT
22-0903942 1130 E SIEBENMORGEN RD 2022-09-22 10:42:21.593 SUSPICIOUS PERSON
22-0903941 22-0903941 1303 GARVIN AV 2022-09-22 10:39:24.497 BATTERY REPORT
22-0903938 1809 OLD MILITARY RD 2022-09-22 10:31:22.687 ATTEMPT TO CONTACT
22-0903937 475 ROBINS ST 2022-09-22 10:30:53.327 PROPERTY DAMAGE
22-0903933 1303 GARVIN AV 2022-09-22 10:10:27.607 HARASSING COMMUNICATIONS
22-0903922 1152 WOODSIDE DR 2022-09-22 09:11:56.243 LOUD NOISE-MUSIC
22-0903916 900 JEANETTE DR 2022-09-22 08:56:15.120 ACCIDENT - PROPERTY DAMAGE
22-0903914 2050 DAVE WARD DR 2022-09-22 08:23:18.030 ATTEMPT TO CONTACT
22-0903913 1620 MIDDLE RD 2022-09-22 08:20:11.107 ATTEMPT TO CONTACT
22-0903912 101 OAK ST 2022-09-22 08:13:53.917 ACCIDENT - PROPERTY DAMAGE
22-0903911 22-0903911 1157 WATKINS ST 2022-09-22 08:00:38.297 THEFT OF PROPERTY
22-0903910 320 CONWAY BLVD 2022-09-22 07:00:03.863 ALARM - HOLD UP or PANIC
22-0903909 22-0903909 2675 FOREST VIEW DR 2022-09-22 06:56:34.877 FIRE DEPT ASSIST
22-0903907 1001 COUNTRY CLUB RD 2022-09-22 06:46:56.040 ROAD RAGE
22-0903905 1155 SKYLINE DR 2022-09-22 06:01:22.857 VEHICLE TOW
22-0903903 1200 COVINGTON WAY 2022-09-22 05:22:05.650 REPOSSESSION
22-0903902 22-0903902 2050 DAVE WARD DR 2022-09-22 05:18:51.533 DISTURBANCE
22-0903900 545 SKYLINE DR 2022-09-22 03:47:03.383 SUSPICIOUS PERSON
22-0903898 1182 LOLLIE RD 2022-09-22 03:18:41.690 ALARM
22-0903895 501 HOGAN LN 2022-09-22 02:45:56.430 CHECKING PERSON
22-0903894 1161 OLD MORRILTON HWY 2022-09-22 02:35:21.870 CHECK ON THE WELFARE
22-0903893 1095 SKYLINE DR 2022-09-22 02:18:35.683 CHECK ON THE WELFARE
22-0903892 1152 WOODSIDE DR 2022-09-22 02:02:07.003 LOUD NOISE-MUSIC
22-0903891 1010 MAIN ST 2022-09-22 01:56:26.503 ALARM
22-0903890 22-0903890 500 SOUTH GERMAN LN 2022-09-22 01:45:59.380 MISDEMEANOR WARRANT SERVICE
22-0903886 1152 WOODSIDE DR 2022-09-22 00:58:35.247 LOUD NOISE-MUSIC
22-0903885 3900 DAVE WARD DR 2022-09-22 00:46:33.697 CHECKING VEHICLE
22-0903883 22-0903883 1611 CHERRY ST 2022-09-22 00:40:25.423 MISSING PERSON
22-0903880 2740 COLLEGE AV 2022-09-21 23:58:58.770 ALARM
22-0903878 475 ROBINS ST 2022-09-21 23:45:05.530 CHECKING PERSON
22-0903877 1055 DOODLE CIR 2022-09-21 23:41:15.910 ALARM
22-0903875 22-0903875 2109 TYLER ST 2022-09-21 23:05:12.600 PROWLER
22-0903871 450 ROBINS ST 2022-09-21 22:31:15.777 TRESPASSING
22-0903870 5 CHEROKEE CIR 2022-09-21 22:15:09.390 CHECK ON THE WELFARE
22-0903866 200 S HARKRIDER DR 2022-09-21 22:07:16.947 CHECKING PERSON
22-0903865 300 BRUCE ST 2022-09-21 21:38:28.980 CHECK ON THE WELFARE
22-0903864 816 HOGAN LN 2022-09-21 21:32:45.280 ALARM
22-0903863 22-0903863 102 OAK ST 2022-09-21 21:25:57.600 TERRORISTIC THREATENING
22-0903862 22-0903862 1185 BULLDOG DR 2022-09-21 21:22:04.150 THEFT OF PROPERTY
22-0903856 400 S CENTER ST 2022-09-21 20:35:57.393 ATTEMPT TO CONTACT
22-0903852 2230 NATURE TRL 2022-09-21 20:08:06.550 CIVIL STAND BY
22-0903851 2505 E OAK ST 2022-09-21 20:04:15.317 AGENCY ASSIST
22-0903848 22-0903848 1515 DAVE WARD DR 2022-09-21 19:50:53.357 CHECKING VEHICLE
22-0903847 2200 MORNING GLORY 2022-09-21 19:34:42.737 TRAFFIC PROBLEM-CONTROL
22-0903846 875 SKYLINE DR 2022-09-21 19:34:21.027 PROPERTY DAMAGE
22-0903845 3455 BLACKSMITH DR 2022-09-21 19:29:48.010 REPOSSESSION
22-0903842 2425 DAVE WARD DR 2022-09-21 19:19:46.397 ALARM
22-0903841 505 OAK ST 2022-09-21 19:06:26.993 VEHICLE TOW
22-0903840 1410 SILVER FALLS 2022-09-21 18:50:51.710 CIVIL STAND BY
22-0903839 22-0903839 1155 SKYLINE DR 2022-09-21 18:46:06.397 CRIMINAL MISCHIEF
22-0903838 1600 MUSEUM RD 2022-09-21 18:43:03.673 CITIZEN ASSIST
22-0903837 701 REEDY RD 2022-09-21 18:42:35.207 LOUD NOISE-MUSIC
22-0903835 716 OAK ST 2022-09-21 18:15:33.427 ACCIDENT - PRIVATE PROPERTY
22-0903833 22-0903833 505 OAK ST 2022-09-21 18:08:48.110 TRESPASSING
22-0903831 22-0903831 5 CHEROKEE CIR 2022-09-21 17:56:14.180 DISTURBANCE
22-0903830 1120 EAST GERMAN LN 2022-09-21 17:48:08.120 VEHICLE TOW
22-0903829 1201 HARKRIDER ST 2022-09-21 17:38:06.903 ABANDONED VEHICLE
22-0903827 5 CHEROKEE CIR 2022-09-21 17:23:36.320 DISTURBANCE
22-0903826 2230 NATURE TRL 2022-09-21 17:10:21.900 CIVIL STAND BY
22-0903824 3900 DAVE WARD DR 2022-09-21 16:51:05.527 CHECK ON THE WELFARE
22-0903823 205 E OAK ST 2022-09-21 16:37:33.127 ALARM - HOLD UP or PANIC
22-0903821 3480 DAVE WARD DR 2022-09-21 16:28:17.100 TRAFFIC PROBLEM-CONTROL
22-0903820 1622 CHERRY ST 2022-09-21 16:18:39.180 AGENCY ASSIST
22-0903818 580 E DAVE WARD DR 2022-09-21 16:17:43.250 ACCIDENT - PROPERTY DAMAGE
22-0903817 801 MCNUTT RD 2022-09-21 16:11:30.040 CHECK ON THE WELFARE
22-0903816 22-0903816 2270 MEADOWLAKE RD 2022-09-21 16:07:37.737 HARASSING COMMUNICATIONS
22-0903815 2501 DAVE WARD DR 2022-09-21 16:05:44.590 RECKLESS DRIVER
22-0903811 1200 SALEM RD 2022-09-21 15:50:44.870 ACCIDENT - PROPERTY DAMAGE
22-0903806 825 6TH ST 2022-09-21 15:30:17.053 STALLED VEHICLE
22-0903805 1755 S HARKRIDER DR 2022-09-21 15:29:33.857 CHECKING BUILDING
22-0903803 2022-09-21 15:20:08.117 ATTEMPT TO CONTACT
22-0903802 4630 UTAH TRL 2022-09-21 15:17:39.667 ATTEMPT TO CONTACT
22-0903799 101 HARKRIDER ST 2022-09-21 15:10:29.350 STALLED VEHICLE
22-0903797 975 E OAK ST 2022-09-21 15:00:18.300 CHECKING VEHICLE
22-0903787 1405 S DONAGHEY AV 2022-09-21 14:10:31.243 FELONY WARRANT SERVICE
22-0903784 22-0903784 1755 S HARKRIDER DR 2022-09-21 13:57:06.000 THEFT OF PROPERTY
22-0903783 4215 PRINCE ST 2022-09-21 13:54:41.500 ATTEMPT TO CONTACT
22-0903782 22-0903782 1900 TYLER ST 2022-09-21 13:50:48.357 THEFT OF PROPERTY
22-0903781 22-0903781 1601 HOGAN LN 2022-09-21 13:45:49.987 BREAKING OR ENTERING
22-0903780 306 MILDRED ST 2022-09-21 13:41:08.880 SUSPICIOUS PERSON
22-0903778 1452 DAVIS ST 2022-09-21 13:32:25.403 REPOSSESSION
22-0903777 22-0903777 1105 PRAIRIE ST 2022-09-21 13:28:26.643 NO CONTACT ORDER VIOLATION
22-0903774 1155 SKYLINE DR 2022-09-21 13:23:21.230 ACCIDENT - PRIVATE PROPERTY
22-0903772 1900 TYLER ST 2022-09-21 13:11:54.927 ATTEMPT TO CONTACT
22-0903769 250 DONAGHEY AV 2022-09-21 13:03:14.697 TRAFFIC PROBLEM-CONTROL
22-0903768 22-0903768 3900 DAVE WARD DR 2022-09-21 13:01:38.520 SHOPLIFTING
22-0903767 22-0903767 3900 DAVE WARD DR 2022-09-21 13:00:32.410 SHOPLIFTING
22-0903766 22-0903766 3900 DAVE WARD DR 2022-09-21 12:59:43.083 SHOPLIFTING
22-0903765 22-0903765 3900 DAVE WARD DR 2022-09-21 12:59:09.803 SHOPLIFTING
22-0903764 22-0903764 3900 DAVE WARD DR 2022-09-21 12:58:24.320 SHOPLIFTING
22-0903763 22-0903763 3900 DAVE WARD DR 2022-09-21 12:57:57.157 SHOPLIFTING
22-0903762 22-0903762 3900 DAVE WARD DR 2022-09-21 12:57:32.910 SHOPLIFTING
22-0903761 22-0903761 3900 DAVE WARD DR 2022-09-21 12:56:45.690 SHOPLIFTING
22-0903760 22-0903760 3900 DAVE WARD DR 2022-09-21 12:56:16.467 SHOPLIFTING
22-0903759 22-0903759 3900 DAVE WARD DR 2022-09-21 12:55:51.620 SHOPLIFTING
22-0903755 1395 STURGIS RD 2022-09-21 12:23:48.130 SUPPLEMENT REPORT CALL
22-0903754 22-0903754 3900 DAVE WARD DR 2022-09-21 12:22:56.053 SHOPLIFTING
22-0903753 22-0903753 620 ELSINGER BLVD 2022-09-21 12:14:42.007 SHOPLIFTING
22-0903752 1400 FACTORY ST 2022-09-21 12:06:47.720 STALLED VEHICLE
22-0903751 1155 SKYLINE DR 2022-09-21 12:01:42.287 FIRE DEPT ASSIST
22-0903747 545 SKYLINE DR 2022-09-21 11:40:31.543 ACCIDENT - PROPERTY DAMAGE
22-0903746 1601 HOGAN LN 2022-09-21 11:27:37.600 CIVIL STAND BY
22-0903745 850 OAK ST 2022-09-21 11:22:39.147 ACCIDENT - PRIVATE PROPERTY
22-0903744 419 BRUCE ST 2022-09-21 11:20:24.217 CITIZEN ASSIST
22-0903743 22-0903743 1105 DEER ST 2022-09-21 11:18:49.220 LOST-STOLEN LICENSE PLATE
22-0903742 1278 S AMITY RD 2022-09-21 11:18:08.323 DISTURBANCE
22-0903740 1570 E OAK ST 2022-09-21 11:11:16.467 REPOSSESSION
22-0903739 1750 VILLAGE COMMONS DR 2022-09-21 11:09:51.200 FRAUD
22-0903737 899 SIMON ST 2022-09-21 10:56:37.750 FRAUD
22-0903736 22-0903736 2125 HARKRIDER ST 2022-09-21 10:52:26.700 CHECKING PERSON
22-0903735 22-0903735 3900 DAVE WARD DR 2022-09-21 10:51:59.737 SHOPLIFTING
22-0903734 22-0903734 207 WILLOW ST 2022-09-21 10:49:36.210 DOMESTIC DISTURBANCE
22-0903732 22-0903732 1622 CHERRY ST 2022-09-21 10:38:32.313 DOMESTIC DISTURBANCE
22-0903731 1952 BRUCE ST 2022-09-21 10:38:14.647 ATTEMPT TO CONTACT
22-0903727 22-0903727 4001 OLD MORRILTON HWY 2022-09-21 10:16:44.533 AGENCY ASSIST
22-0903718 22-0903718 450 E DAVE WARD DR 2022-09-21 09:46:33.550 PROPERTY DAMAGE
22-0903717 1900 TYLER ST 2022-09-21 09:44:18.890 ATTEMPT TO CONTACT
22-0903714 200 E DAVE WARD DR 2022-09-21 09:27:26.647 SUPPLEMENT REPORT CALL
22-0903713 22-0903713 800 PADGETT RD 2022-09-21 09:26:04.430 HARASSING COMMUNICATIONS
22-0903712 22-0903712 1600 WESTLAKE DR 2022-09-21 09:25:15.230 DISORDERLY CONDUCT
22-0903711 400 E DAVE WARD DR 2022-09-21 09:24:23.407 ATTEMPT TO CONTACT
22-0903710 786 ELSINGER BLVD 2022-09-21 09:23:46.080 ALARM
22-0903706 22-0903706 2300 PRINCE ST 2022-09-21 09:01:02.903 DISORDERLY CONDUCT
22-0903703 8 PATTON CIR 2022-09-21 08:45:08.997 ATTEMPT TO CONTACT
22-0903702 1260 S AMITY RD 2022-09-21 08:38:04.620 ATTEMPT TO CONTACT
22-0903701 101 OAK ST 2022-09-21 08:32:34.107 SUPPLEMENT REPORT CALL
22-0903699 22-0903699 2550 PRINCE ST 2022-09-21 08:26:22.733 CHECK ON THE WELFARE
22-0903698 5 AZALEA LP 2022-09-21 08:24:32.923 FOUND PROPERTY
22-0903697 30 LOWER RIDGE RD 2022-09-21 08:23:33.250 CHECKING VEHICLE
22-0903695 825 OAK ST 2022-09-21 08:09:12.440 ATTEMPT TO CONTACT
22-0903694 2050 DAVE WARD DR 2022-09-21 07:54:56.897 TRESPASSING
22-0903692 100 HAYES ST 2022-09-21 07:43:43.000 ASSAULT
22-0903691 2670 PRINCE ST 2022-09-21 07:30:36.723 STALLED VEHICLE
22-0903689 1701 SALEM RD 2022-09-21 06:59:30.107 ACCIDENT - HIT AND RUN
22-0903688 401 2ND ST 2022-09-21 06:55:53.073 REPOSSESSION
22-0903686 4255 COLLEGE AV 2022-09-21 06:11:47.633 SUSPICIOUS PERSON
22-0903685 22-0903685 3602 OLD MORRILTON HWY 2022-09-21 06:02:10.930 ACCIDENT - PROPERTY DAMAGE
22-0903684 270 E SKYLINE DR 2022-09-21 05:20:42.880 TRESPASSING
22-0903681 1301 HARKRIDER ST 2022-09-21 02:31:56.440 CHECKING PERSON
22-0903679 22-0903679 3900 DAVE WARD DR 2022-09-21 02:16:18.007 BURGLARY
22-0903678 500 ELSINGER BLVD 2022-09-21 02:14:30.370 CHECKING VEHICLE
22-0903675 1000 E SIEBENMORGEN RD 2022-09-21 01:24:15.987 ALARM
22-0903674 1155 SKYLINE DR 2022-09-21 00:53:19.480 VEHICLE TOW
22-0903672 22-0903672 2270 MEADOWLAKE RD 2022-09-21 00:18:40.833 CHECK ON THE WELFARE
22-0903671 1601 DONAGHEY AV 2022-09-21 00:11:59.060 RECKLESS DRIVER
22-0903664 2275 MOIX BLVD 2022-09-20 22:08:11.523 LOUD NOISE-MUSIC
22-0903663 22-0903663 2050 DAVE WARD DR 2022-09-20 22:06:38.547 TRESPASSING
22-0903661 2430 SANDERS ST 2022-09-20 21:56:05.630 ATTEMPT TO CONTACT
22-0903658 1500 E OAK ST 2022-09-20 21:46:07.343 ALARM
22-0903657 3699 EMPY TRL 2022-09-20 21:44:17.597 ACCIDENT - PROPERTY DAMAGE
22-0903656 22-0903656 1105 SKYLINE DR 2022-09-20 21:41:04.607 CHECK ON THE WELFARE
22-0903654 2740 COLLEGE AV 2022-09-20 21:34:24.083 ALARM
22-0903651 1720 OLD MORRILTON HWY 2022-09-20 21:23:35.640 FIGHT
22-0903648 770 EAST GERMAN LN 2022-09-20 21:10:47.777 ATTEMPT TO CONTACT
22-0903647 621 4TH ST 2022-09-20 21:08:54.447 CIVIL MATTER
22-0903644 1155 SKYLINE DR 2022-09-20 20:49:20.843 RECKLESS DRIVER
22-0903643 22-0903643 2001 FLORENCE MATTISON DR 2022-09-20 20:38:55.177 CHECKING VEHICLE
22-0903642 3820 DAVE WARD DR 2022-09-20 20:38:05.873 ALARM
22-0903641 848 CHESTNUT ST 2022-09-20 20:26:45.560 BURGLARY
22-0903640 530 S DONAGHEY AV 2022-09-20 20:18:54.100 ACCIDENT - PRIVATE PROPERTY
22-0903636 22-0903636 3060 PEBBLE BEACH DR 2022-09-20 20:01:10.530 DOMESTIC DISTURBANCE
22-0903633 1155 CUMULUS DR 2022-09-20 19:44:47.830 CRIMINAL MISCHIEF
22-0903631 300 S DONAGHEY AV 2022-09-20 19:38:31.837 SUPPLEMENT REPORT CALL
22-0903630 600 5TH AV 2022-09-20 19:29:37.017 CHECKING PERSON
22-0903629 855 AMITY RD 2022-09-20 19:24:36.770 DOMESTIC DISTURBANCE
22-0903628 425 E 6TH ST 2022-09-20 19:20:05.833 UNKNOWN TROUBLE
22-0903627 22-0903627 2108 INDEPENDENCE AV 2022-09-20 19:15:05.170 TRESPASSING
22-0903625 5 FORREST LN 2022-09-20 19:03:00.663 SUSPICIOUS VEHICLE
22-0903624 206 CLUB LN 2022-09-20 18:58:39.727 DOMESTIC DISTURBANCE
22-0903623 1060 SANTA FE TRL 2022-09-20 18:58:28.670 CHECK ON THE WELFARE
22-0903621 799 S HOGAN LN 2022-09-20 18:50:24.043 ACCIDENT - PERSONAL INJURY
22-0903620 701 MONROE ST 2022-09-20 18:44:41.410 ACCIDENT - PROPERTY DAMAGE
22-0903619 1090 SKYLINE DR 2022-09-20 18:37:54.057 THEFT OF PROPERTY
22-0903618 56 SANDPIPER CT 2022-09-20 18:29:06.877 ATTEMPT TO CONTACT
22-0903615 22-0903615 16 BRIERWOOD CIR 2022-09-20 18:17:30.310 HARASSING COMMUNICATIONS
22-0903614 620 INGRAM VILLAGE DR 2022-09-20 18:17:05.333 ATTEMPT TO CONTACT
22-0903613 1560 E OAK ST 2022-09-20 18:15:45.717 ALARM
22-0903612 1901 E OAK ST 2022-09-20 18:10:25.703 ACCIDENT - PROPERTY DAMAGE
22-0903611 2230 NATURE TRL 2022-09-20 18:06:48.490 DOMESTIC DISTURBANCE
22-0903610 2599 WASHINGTON AV 2022-09-20 18:06:22.853 ACCIDENT - PROPERTY DAMAGE
22-0903609 22-0903609 4335 DENVER DR 2022-09-20 17:45:54.040 RUNAWAY
22-0903607 124 I40WB 2022-09-20 17:23:04.143 ACCIDENT - PROPERTY DAMAGE
22-0903606 10 LOWER RIDGE RD 2022-09-20 17:17:32.520 ACCIDENT - PROPERTY DAMAGE
22-0903605 22-0903605 1010 MAIN ST 2022-09-20 17:09:56.770 LOST PROPERTY
22-0903604 1200 DAVE WARD DR 2022-09-20 17:09:05.070 RECKLESS DRIVER
22-0903603 1075 ANDREWS DR 2022-09-20 17:06:19.690 ALARM
22-0903602 22-0903602 3820 DAVE WARD DR 2022-09-20 17:01:53.770 TRESPASSING
22-0903601 1618 WESTLAKE DR 2022-09-20 16:58:24.557 CIVIL STAND BY
22-0903600 2850 COLLEGE AV 2022-09-20 16:56:33.967 ACCIDENT - PROPERTY DAMAGE
22-0903599 1105 PRAIRIE ST 2022-09-20 16:54:00.343 MISDEMEANOR WARRANT SERVICE
22-0903597 22-0903597 1010 MAIN ST 2022-09-20 16:44:18.437 ASSAULT
22-0903596 545 E DAVE WARD DR 2022-09-20 16:37:44.607 CHECK ON THE WELFARE
22-0903595 2245 ELDRIDGE LN 2022-09-20 16:28:05.653 SUPPLEMENT REPORT CALL
22-0903594 3600 GRESHAM DR 2022-09-20 16:26:56.490 ALARM
22-0903593 810 AMITY RD 2022-09-20 16:11:49.777 ATTEMPT TO CONTACT
22-0903591 22-0903591 1010 MAIN ST 2022-09-20 15:56:42.890 CRIMINAL MISCHIEF
22-0903589 530 S DONAGHEY AV 2022-09-20 15:51:02.743 HARASSING COMMUNICATIONS
22-0903586 22-0903586 1395 STURGIS RD 2022-09-20 15:43:02.747 BREAKING OR ENTERING
22-0903584 2420 BROADVIEW AV 2022-09-20 15:35:57.903 ACCIDENT - PROPERTY DAMAGE
22-0903582 2500 DAVE WARD DR 2022-09-20 15:34:05.933 ACCIDENT - PERSONAL INJURY
22-0903580 127 I40WB 2022-09-20 15:09:14.440 ACCIDENT - PROPERTY DAMAGE
22-0903579 22-0903579 840 WATKINS ST 2022-09-20 15:06:47.363 FRAUD
22-0903578 270 GREAT FALLS 2022-09-20 15:00:40.430 ATTEMPT TO CONTACT
22-0903577 3115 COLLEGE AV 2022-09-20 14:45:35.553 ATTEMPT TO CONTACT
22-0903574 500 DAVIS ST 2022-09-20 14:14:18.253 ACCIDENT - PROPERTY DAMAGE
22-0903573 22-0903573 1155 SKYLINE DR 2022-09-20 14:13:24.700 SHOPLIFTING
22-0903572 633 S COUNTRY CLUB RD 2022-09-20 14:09:24.150 SUPPLEMENT REPORT CALL
22-0903570 22-0903570 1815 PRINCE ST 2022-09-20 14:00:26.797 CRIMINAL MISCHIEF
22-0903569 22-0903569 500 SOUTH GERMAN LN 2022-09-20 13:57:30.087 MISDEMEANOR WARRANT SERVICE
22-0903567 150 E SIEBENMORGEN RD 2022-09-20 13:38:52.653 SUPPLEMENT REPORT CALL
22-0903566 317 OAK ST 2022-09-20 13:36:14.603 ACCIDENT - PRIVATE PROPERTY
22-0903565 601 E DAVE WARD DR 2022-09-20 13:21:56.060 ACCIDENT - PROPERTY DAMAGE
22-0903563 1701 HARKRIDER ST 2022-09-20 13:13:52.690 ACCIDENT - PROPERTY DAMAGE
22-0903560 3031 PRINCE ST 2022-09-20 13:05:43.133 ACCIDENT - PROPERTY DAMAGE
22-0903555 2510 PRINCE ST 2022-09-20 12:41:34.940 TRAFFIC PROBLEM-CONTROL
22-0903551 407 HEREFORD ST 2022-09-20 12:26:46.220 DOMESTIC DISTURBANCE
22-0903550 341 ASH ST 2022-09-20 12:23:56.690 REPOSSESSION
22-0903546 1100 S AMITY RD 2022-09-20 12:14:08.980 ACCIDENT - PROPERTY DAMAGE
22-0903544 2400 MARKET PLAZA DR 2022-09-20 11:50:03.350 DISTURBANCE
22-0903543 925 OAK ST 2022-09-20 11:42:51.230 SUPPLEMENT REPORT CALL
22-0903542 1685 E OAK ST 2022-09-20 11:41:27.253 CHECK ON THE WELFARE
22-0903541 205 E OAK ST 2022-09-20 11:29:28.787 SUPPLEMENT REPORT CALL
22-0903540 1951 TORREYSON ST 2022-09-20 11:15:38.623 THEFT OF VEHICLE
22-0903536 2925 PEBBLE BEACH DR 2022-09-20 11:04:22.937 CHECK ON THE WELFARE
22-0903535 1952 BRUCE ST 2022-09-20 11:00:18.897 SUPPLEMENT REPORT CALL
22-0903534 1902 MILLWOOD DR 2022-09-20 10:57:56.337 CIVIL STAND BY
22-0903533 1375 CHAMPIONS DR 2022-09-20 10:49:06.147 SUPPLEMENT REPORT CALL
22-0903532 4905 PARK PLACE DR 2022-09-20 10:43:19.737 ALARM
22-0903531 22-0903531 3115 COLLEGE AV 2022-09-20 10:17:24.590 HARASSMENT
22-0903528 560 HARKRIDER ST 2022-09-20 10:03:48.610 ATTEMPT TO CONTACT
22-0903526 1895 E OAK ST 2022-09-20 09:58:36.313 ACCIDENT - HIT AND RUN
22-0903523 2100 FAVRE LN 2022-09-20 09:35:48.763 STALLED VEHICLE
22-0903521 22-0903521 1105 PRAIRIE ST 2022-09-20 09:23:51.783 MISDEMEANOR WARRANT SERVICE
22-0903520 22-0903520 2300 PRINCE ST 2022-09-20 09:22:14.137 TERRORISTIC THREATENING
22-0903514 1200 DAVE WARD DR 2022-09-20 08:44:36.060 ATTEMPT TO CONTACT
22-0903512 380 HARKRIDER ST 2022-09-20 08:35:35.497 VEHICLE TOW
22-0903510 530 S DONAGHEY AV 2022-09-20 08:23:21.770 SUSPICIOUS PERSON
22-0903508 1810 HOGAN LN 2022-09-20 07:46:45.957 ATTEMPT TO CONTACT
22-0903506 5137 TYLER ST 2022-09-20 06:52:27.967 FOUND PROPERTY
22-0903504 1695 SOUTH GERMAN LN 2022-09-20 06:40:02.930 ALARM
22-0903503 3680 DAVE WARD DR 2022-09-20 06:27:52.220 ALARM
22-0903502 3700 COLLEGE AV 2022-09-20 05:31:54.680 ALARM
22-0903501 22-0903501 1105 SKYLINE DR 2022-09-20 04:43:32.710 THEFT OF PROPERTY
22-0903500 2325 DAVE WARD DR 2022-09-20 04:31:37.660 CHECKING PERSON
22-0903499 1055 DAVE WARD DR 2022-09-20 04:21:45.240 CHECKING PERSON
22-0903494 1014 HARKRIDER ST 2022-09-20 03:01:00.530 ALARM
22-0903491 1155 SKYLINE DR 2022-09-20 01:45:06.063 VEHICLE TOW
22-0903489 584 COMMERCE RD 2022-09-20 01:15:46.793 ALARM
22-0903486 22-0903486 500 SOUTH GERMAN LN 2022-09-20 00:41:54.937 MISDEMEANOR WARRANT SERVICE
22-0903485 1950 ERBACH ST 2022-09-20 00:25:28.450 CHECKING VEHICLE
22-0903484 732 5TH AV 2022-09-20 00:05:18.647 SUSPICIOUS PERSON
22-0903483 363 DONAGHEY AV 2022-09-20 00:05:08.843 HARASSMENT
22-0903482 1555 EXCHANGE AV 2022-09-19 23:45:08.883 CHECK ON THE WELFARE
22-0903480 2245 ELDRIDGE LN 2022-09-19 23:26:30.553 SUSPICIOUS ACTIVITY
22-0903477 1014 HARKRIDER ST 2022-09-19 23:00:42.730 ALARM
22-0903476 355 LEDGELAWN DR 2022-09-19 22:44:27.903 SUSPICIOUS VEHICLE
22-0903474 1301 COUNTRY CLUB RD 2022-09-19 22:36:39.360 CHECKING VEHICLE
22-0903471 22-0903471 2120 RAINBOW RD 2022-09-19 22:18:21.137 DOMESTIC DISTURBANCE
22-0903466 56 SANDPIPER CIR 2022-09-19 21:37:16.647 ATTEMPT TO CONTACT
22-0903465 22-0903465 129 I40EB 2022-09-19 21:33:14.167 AGENCY ASSIST
22-0903464 22-0903464 1620 MIDDLE RD 2022-09-19 21:30:03.627 TERRORISTIC THREATENING
22-0903462 4553 TYLER ST 2022-09-19 21:03:13.077 INTOXICATED PERSON
22-0903461 2740 COLLEGE AV 2022-09-19 20:58:31.767 ALARM
22-0903459 22-0903459 1306 BELLEMEADE DR 2022-09-19 20:54:27.117 UNKNOWN TROUBLE
22-0903456 1105 SKYLINE DR 2022-09-19 20:31:52.543 CIVIL MATTER
22-0903452 650 S AMITY RD 2022-09-19 20:18:49.173 ATTEMPT TO CONTACT
22-0903451 330 WESTERN AV 2022-09-19 20:14:40.557 FIRE DEPT ASSIST
22-0903449 814 E OAK ST 2022-09-19 20:12:06.453 ALARM - HOLD UP or PANIC
22-0903448 2750 MAKENZIE DR 2022-09-19 20:06:46.223 ATTEMPT TO CONTACT
22-0903447 22-0903447 150 AMITY RD 2022-09-19 20:05:43.393 SUSPICIOUS VEHICLE
22-0903445 22-0903445 1500 MUSEUM RD 2022-09-19 20:02:10.310 SUSPICIOUS PERSON
22-0903443 30 BRIERWOOD CIR 2022-09-19 19:49:20.190 BURGLARY
22-0903442 650 S AMITY RD 2022-09-19 19:40:24.157 HARASSMENT
22-0903441 22-0903441 530 S DONAGHEY AV 2022-09-19 19:33:20.450 THEFT OF PROPERTY
22-0903440 22-0903440 1299 MATTISON RD 2022-09-19 19:25:46.067 FOUND PROPERTY
22-0903439 22-0903439 1701 DAVE WARD DR 2022-09-19 19:21:21.077 BATTERY REPORT
22-0903435 800 LOCUST AV 2022-09-19 19:01:14.080 ACCIDENT - PROPERTY DAMAGE
22-0903434 1090 SKYLINE DR 2022-09-19 18:40:30.470 CHECK ON THE WELFARE
22-0903433 2022-09-19 18:31:27.113 ATTEMPT TO CONTACT
22-0903431 2200 MEADOWLAKE RD 2022-09-19 18:12:31.737 PROPERTY DAMAGE
22-0903430 150 AMITY RD 2022-09-19 17:36:27.797 CHECK ON THE WELFARE
22-0903428 1397 EAST GERMAN LN 2022-09-19 17:00:49.797 ACCIDENT - PROPERTY DAMAGE
22-0903427 22-0903427 910 CRESTLINER DR 2022-09-19 17:00:34.273 FRAUD
22-0903426 380 HARKRIDER ST 2022-09-19 17:00:06.753 VEHICLE TOW
22-0903424 2900 DAVE WARD DR 2022-09-19 16:34:27.447 STALLED VEHICLE
22-0903423 2799 SALEM RD 2022-09-19 16:30:40.007 STALLED VEHICLE
22-0903421 22-0903421 620 CHESTNUT ST 2022-09-19 16:02:08.413 FORGERY
22-0903420 22-0903420 2425 SANDERS ST 2022-09-19 15:59:14.097 FORGERY
22-0903419 2245 ELDRIDGE LN 2022-09-19 15:57:57.427 SUPPLEMENT REPORT CALL
22-0903418 2550 PRINCE ST 2022-09-19 15:56:36.710 ACCIDENT - PRIVATE PROPERTY
22-0903417 1651 HAIRSTON AV 2022-09-19 15:50:12.330 HARASSMENT
22-0903416 22-0903416 2022-09-19 15:43:23.310 MISDEMEANOR WARRANT SERVICE
22-0903413 380 HARKRIDER ST 2022-09-19 15:31:30.533 CHECK ON THE WELFARE
22-0903412 4540 SAWGRASS CV 2022-09-19 15:31:30.480 SUPPLEMENT REPORT CALL
22-0903411 945 WOODARD DR 2022-09-19 15:31:21.047 ALARM
22-0903410 22-0903410 1895 E OAK ST 2022-09-19 15:23:12.170 BREAKING OR ENTERING
22-0903409 910 CRESTLINER DR 2022-09-19 15:20:23.850 ATTEMPT TO CONTACT
22-0903408 300 LOCUST AV 2022-09-19 15:15:35.940 ACCIDENT - PROPERTY DAMAGE
22-0903407 2732 PRINCE ST 2022-09-19 15:07:09.997 SUPPLEMENT REPORT CALL
22-0903405 1000 S AMITY RD 2022-09-19 14:39:56.420 ACCIDENT - HIT AND RUN
22-0903404 220 E OAK ST 2022-09-19 14:27:02.460 ACCIDENT - PRIVATE PROPERTY
22-0903402 620 CHERUB DR 2022-09-19 14:21:54.670 TRESPASSING
22-0903400 899 ELSINGER BLVD 2022-09-19 14:10:24.277 ACCIDENT - PERSONAL INJURY
22-0903399 1200 E DAVE WARD DR 2022-09-19 13:57:44.850 RECKLESS DRIVER
22-0903398 207 WILLOW ST 2022-09-19 13:56:52.467 CIVIL MATTER
22-0903396 925 OAK ST 2022-09-19 13:48:43.233 ACCIDENT - PROPERTY DAMAGE
22-0903394 22-0903394 300 S DONAGHEY AV 2022-09-19 13:15:40.820 THEFT OF IDENTITY
22-0903388 702 S HARKRIDER DR 2022-09-19 12:38:25.493 ACCIDENT - PERSONAL INJURY
22-0903383 101 HARKRIDER ST 2022-09-19 12:08:25.280 ACCIDENT - PERSONAL INJURY
22-0903382 22-0903382 414 OAK ST 2022-09-19 12:08:00.730 FRAUD
22-0903381 831 NUTTERS CHAPEL RD 2022-09-19 11:57:45.130 THEFT OF PROPERTY
22-0903379 1105 PRAIRIE ST 2022-09-19 11:52:54.470 ATTEMPT TO CONTACT
22-0903378 1295 EAST GERMAN LN 2022-09-19 11:52:09.907 ATTEMPT TO CONTACT
22-0903377 22-0903377 1200 THOMAS G WILSON DR 2022-09-19 11:45:20.630 TRESPASSING
22-0903374 1410 SILVER FALLS 2022-09-19 11:38:31.573 ATTEMPT TO CONTACT
22-0903373 945 WOODARD DR 2022-09-19 11:19:41.323 ALARM
22-0903370 2050 E OAK ST 2022-09-19 11:07:23.277 ATTEMPT TO CONTACT
22-0903368 1110 E OAK ST 2022-09-19 10:59:02.157 ACCIDENT - PROPERTY DAMAGE
22-0903367 101 HARKRIDER ST 2022-09-19 10:54:16.180 STALLED VEHICLE
22-0903364 1115 PARKWAY ST 2022-09-19 10:50:24.810 TRESPASSING
22-0903363 1505 OLD MORRILTON HWY 2022-09-19 10:47:38.390 ACCIDENT - PROPERTY DAMAGE
22-0903362 801 S SALEM RD 2022-09-19 10:43:35.837 STALLED VEHICLE
22-0903360 22-0903360 620 CHESTNUT ST 2022-09-19 10:42:40.607 FORGERY
22-0903357 1325 OLD MORRILTON HWY 2022-09-19 10:26:27.813 ACCIDENT - HIT AND RUN
22-0903356 1311 EASTFIELD ST 2022-09-19 10:22:58.413 ATTEMPT TO CONTACT
22-0903354 22-0903354 475 ROBINS ST 2022-09-19 10:20:52.763 LOST-STOLEN LICENSE PLATE
22-0903353 545 SKYLINE DR 2022-09-19 10:16:45.920 ACCIDENT - PROPERTY DAMAGE
22-0903352 2303 BROADVIEW AV 2022-09-19 10:15:37.370 ATTEMPT TO CONTACT
22-0903350 22-0903350 1105 PRAIRIE ST 2022-09-19 10:12:15.313 MISDEMEANOR WARRANT SERVICE
22-0903349 1651 HAIRSTON AV 2022-09-19 10:11:49.393 ATTEMPT TO CONTACT
22-0903348 22-0903348 1105 PRAIRIE ST 2022-09-19 10:11:03.993 MISDEMEANOR WARRANT SERVICE
22-0903345 2050 E OAK ST 2022-09-19 10:04:48.920 HARASSMENT
22-0903343 22-0903343 2516 W MARTIN ST 2022-09-19 09:54:09.937 DOMESTIC DISTURBANCE
22-0903342 22-0903342 1815 PRINCE ST 2022-09-19 09:52:26.370 HARASSMENT
22-0903341 22-0903341 2403 PARKVIEW CIR 2022-09-19 09:44:57.033 CHECKING PERSON
22-0903339 1555 EXCHANGE AV 2022-09-19 09:37:58.380 ATTEMPT TO CONTACT
22-0903337 899 SIMON ST 2022-09-19 09:08:08.523 ACCIDENT - PERSONAL INJURY
22-0903335 2550 PRINCE ST 2022-09-19 08:48:50.430 VEHICLE TOW
22-0903331 1595 EDGESTONE CIR 2022-09-19 08:30:26.627 ALARM
22-0903330 2300 PRINCE ST 2022-09-19 08:23:21.880 ACCIDENT - HIT AND RUN
22-0903329 129 I40EB 2022-09-19 08:17:12.957 ACCIDENT - PROPERTY DAMAGE
22-0903327 22-0903327 1311 EASTFIELD ST 2022-09-19 07:57:29.953 THEFT OF PROPERTY
22-0903326 1101 E DAVE WARD DR 2022-09-19 07:55:50.277 ACCIDENT - PROPERTY DAMAGE
22-0903325 127 I40EB 2022-09-19 07:43:57.687 ACCIDENT - PERSONAL INJURY
22-0903324 2225 PRINCE ST 2022-09-19 07:43:29.283 ALARM
22-0903322 601 DAVE WARD DR 2022-09-19 07:28:53.607 ACCIDENT - PROPERTY DAMAGE
22-0903321 22-0903321 750 AMITY RD 2022-09-19 07:17:55.483 DOMESTIC DISTURBANCE
22-0903320 701 DONAGHEY AV 2022-09-19 07:15:05.613 CHECK ON THE WELFARE
22-0903318 1601 HOGAN LN 2022-09-19 07:02:39.320 THEFT OF VEHICLE
22-0903315 1215 MONTANA DR 2022-09-19 06:02:40.837 ALARM
22-0903313 505 SALEM RD 2022-09-19 05:41:08.833 ALARM
22-0903312 1340 STONE CREST DR 2022-09-19 05:39:46.210 PROWLER
22-0903310 600 S HARKRIDER DR 2022-09-19 04:12:08.533 CHECKING PERSON
22-0903309 1900 TYLER ST 2022-09-19 03:28:25.440 AGENCY ASSIST
22-0903308 1550 CHERRY BARK DR 2022-09-19 03:14:14.497 BARKING DOG COMPLAINT
22-0903307 1930 KEATHLEY DR 2022-09-19 03:13:20.083 SUSPICIOUS VEHICLE
22-0903303 530 S DONAGHEY AV 2022-09-19 02:10:35.023 VEHICLE TOW
22-0903302 260 SALEM RD 2022-09-19 01:48:21.273 LOG VEHICLE
22-0903300 1105 E OAK ST 2022-09-19 01:20:17.967 ALARM
22-0903298 1105 E OAK ST 2022-09-19 01:06:06.563 ALARM
22-0903297 1601 HOGAN LN 2022-09-19 01:03:28.043 REPOSSESSION
22-0903294 805 HARKRIDER ST 2022-09-19 00:44:06.037 CHECKING VEHICLE
22-0903293 3400 IRBY DR 2022-09-19 00:36:39.303 SUSPICIOUS VEHICLE
22-0903289 22-0903289 500 SOUTH GERMAN LN 2022-09-18 23:50:31.887 MISDEMEANOR WARRANT SERVICE
22-0903286 621 OAK ST 2022-09-18 23:37:30.570 CHECKING PERSON
22-0903284 2670 DONAGHEY AV 2022-09-18 23:27:48.170 CHECKING PERSON
22-0903282 2203 LOOKOUT AV 2022-09-18 22:59:14.613 REPOSSESSION
22-0903281 1651 HAIRSTON AV 2022-09-18 22:44:44.007 TRESPASSING
22-0903280 180 EXCHANGE AV 2022-09-18 22:16:53.167 CHECKING VEHICLE
22-0903277 801 ELSINGER BLVD 2022-09-18 21:57:05.693 CHECKING VEHICLE
22-0903276 601 ELSINGER BLVD 2022-09-18 21:50:16.063 CHECKING VEHICLE
22-0903275 620 ELSINGER BLVD 2022-09-18 21:48:04.773 CHECKING VEHICLE
22-0903274 2300 PRINCE ST 2022-09-18 21:46:41.877 CHECK ON THE WELFARE
22-0903273 865 FENDLEY DR 2022-09-18 21:39:26.630 REPOSSESSION
22-0903270 3205 PEBBLE BEACH DR 2022-09-18 21:21:20.627 CHECK ON THE WELFARE
22-0903269 1065 CLAYTON ST 2022-09-18 20:47:38.690 DOMESTIC DISTURBANCE
22-0903268 1410 WATKINS ST 2022-09-18 20:44:41.690 DOMESTIC DISTURBANCE
22-0903266 22-0903266 2022-09-18 20:40:00.393 MISDEMEANOR WARRANT SERVICE
22-0903265 1900 TYLER ST 2022-09-18 20:26:48.740 CHECK ON THE WELFARE
22-0903264 4820 ABBEY GAIL DR 2022-09-18 20:24:01.137 SHOTS FIRED
22-0903262 575 ELSINGER BLVD 2022-09-18 19:59:27.633 ACCIDENT - PRIVATE PROPERTY
22-0903261 22-0903261 1025 S DONAGHEY AV 2022-09-18 19:46:32.263 BURGLARY
22-0903259 2025 EDITH CIR 2022-09-18 19:31:27.467 SHOTS FIRED
22-0903257 1700 CALDWELL ST 2022-09-18 19:26:00.453 BARKING DOG COMPLAINT
22-0903255 850 OAK ST 2022-09-18 19:08:54.310 ENDANGERING WELFARE OF MINOR
22-0903254 2101 PRINCE ST 2022-09-18 19:08:53.437 ACCIDENT - PROPERTY DAMAGE
22-0903253 1105 PRAIRIE ST 2022-09-18 19:02:52.390 CIVIL STAND BY
22-0903252 601 ELSINGER BLVD 2022-09-18 19:02:19.023 CHECKING PERSON
22-0903251 1014 HARKRIDER ST 2022-09-18 18:59:14.033 ALARM
22-0903250 600 5TH AV 2022-09-18 18:46:04.637 CHECKING PERSON
22-0903249 501 DONAGHEY AV 2022-09-18 18:40:00.060 SHOTS FIRED
22-0903248 22-0903248 2151 E OAK ST 2022-09-18 18:39:43.307 ABANDONED VEHICLE
22-0903247 600 5TH AV 2022-09-18 18:32:20.557 DISTURBANCE
22-0903243 129 I40WB 2022-09-18 17:30:22.307 PROPERTY DAMAGE
22-0903241 2900 DAVE WARD DR 2022-09-18 16:15:18.550 INTOXICATED DRIVER
22-0903240 22-0903240 300 BRUCE ST 2022-09-18 16:15:16.233 PURSUIT
22-0903238 1250 E DAVE WARD DR 2022-09-18 15:53:11.690 CHECK ON THE WELFARE
22-0903237 450 SKYLINE DR 2022-09-18 15:45:44.717 CIVIL STAND BY
22-0903236 20 KINLEY DR 2022-09-18 15:41:43.543 CITY ORDINANCE VIOLATION
22-0903235 1150 S AMITY RD 2022-09-18 15:31:29.913 DISTURBANCE
22-0903234 2302 COLLEGE AV 2022-09-18 15:25:29.307 DISTURBANCE
22-0903233 22-0903233 3100 IRBY DR 2022-09-18 15:22:50.800 ASSAULT
22-0903232 1 LOWER RIDGE RD 2022-09-18 15:04:48.683 ACCIDENT - PROPERTY DAMAGE
22-0903231 2505 ORCHARD PARK DR 2022-09-18 14:59:09.623 ALARM
22-0903227 420 OAK ST 2022-09-18 14:13:23.887 ALARM - HOLD UP or PANIC
22-0903226 500 E OAK ST 2022-09-18 14:12:25.757 AGENCY ASSIST
22-0903225 22-0903225 3100 IRBY DR 2022-09-18 14:08:24.467 CIVIL MATTER
22-0903224 1182 LOLLIE RD 2022-09-18 14:04:39.997 ALARM
22-0903221 417 S ASH ST 2022-09-18 13:44:04.623 DOMESTIC DISTURBANCE
22-0903220 300 S DONAGHEY AV 2022-09-18 13:33:49.047 SUPPLEMENT REPORT CALL
22-0903219 320 WESTERN AV 2022-09-18 13:20:45.993 HARASSMENT
22-0903217 22-0903217 955 SOUTH GERMAN LN 2022-09-18 12:54:59.263 THEFT OF VEHICLE
22-0903216 1205 E SKYLINE DR 2022-09-18 12:51:15.370 ACCIDENT - PERSONAL INJURY
22-0903215 1205 E SKYLINE DR 2022-09-18 12:51:10.427 ACCIDENT - PERSONAL INJURY
22-0903212 1445 ARAPAHO TRL 2022-09-18 12:39:02.540 DOMESTIC DISTURBANCE
22-0903209 22-0903209 603 5TH AV 2022-09-18 11:41:30.737 DEATH CALL
22-0903207 816 HOGAN LN 2022-09-18 11:23:04.870 SHOPLIFTING
22-0903206 1250 S AMITY RD 2022-09-18 11:21:39.140 ACCIDENT - PRIVATE PROPERTY
22-0903204 2901 TYLER ST 2022-09-18 11:05:46.500 ACCIDENT - PERSONAL INJURY
22-0903203 22-0903203 300 S DONAGHEY AV 2022-09-18 11:04:50.307 BURGLARY
22-0903201 22-0903201 300 S DONAGHEY AV 2022-09-18 10:45:25.057 THEFT OF VEHICLE
22-0903200 22-0903200 1775 OLD MORRILTON HWY 2022-09-18 10:39:23.907 CHECKING VEHICLE
22-0903198 22-0903198 1440 DAVE WARD DR 2022-09-18 10:15:29.730 CRIMINAL MISCHIEF
22-0903197 501 ELSINGER BLVD 2022-09-18 10:14:11.140 SUPPLEMENT REPORT CALL
22-0903194 4100 MALLARD LN 2022-09-18 10:04:31.317 CHECKING VEHICLE
22-0903192 22-0903192 3055 PEBBLE BEACH DR 2022-09-18 09:49:17.373 BREAKING OR ENTERING
22-0903190 835 S DONAGHEY AV 2022-09-18 09:32:15.243 PARKING VIOLATION
22-0903189 2413 PARKWOOD DR 2022-09-18 09:15:52.500 THEFT OF PROPERTY
22-0903188 407 HEREFORD ST 2022-09-18 08:54:50.307 DOMESTIC DISTURBANCE
22-0903185 800 MILAM DR 2022-09-18 08:38:26.360 ATTEMPT TO CONTACT
22-0903182 22-0903182 801 HOGAN LN 2022-09-18 08:15:03.800 CHECKING VEHICLE
22-0903181 2164 HARKRIDER ST 2022-09-18 08:13:42.050 CHECKING VEHICLE
22-0903180 1014 HARKRIDER ST 2022-09-18 07:24:30.563 CITIZEN ASSIST
22-0903175 1014 HARKRIDER ST 2022-09-18 07:01:42.020 ALARM
22-0903173 22-0903173 1095 SKYLINE DR 2022-09-18 05:08:57.650 THEFT OF SERVICES
22-0903170 1014 HARKRIDER ST 2022-09-18 03:00:41.400 ALARM
22-0903168 123 BARIDON ST 2022-09-18 02:33:45.913 UNKNOWN TROUBLE
22-0903167 129 I40WB 2022-09-18 02:27:20.890 CHECK ON THE WELFARE
22-0903166 2225 PRINCE ST 2022-09-18 02:25:08.467 ALARM
22-0903165 450 ROBINS ST 2022-09-18 02:18:16.317 CIVIL MATTER
22-0903161 22-0903161 501 ELSINGER BLVD 2022-09-18 01:49:53.967 SHOOTING
22-0903160 1055 STEEL AV 2022-09-18 01:38:01.623 CHECK ON THE WELFARE
22-0903158 450 ROBINS ST 2022-09-18 01:19:59.653 DOMESTIC DISTURBANCE
22-0903157 701 REEDY RD 2022-09-18 01:15:15.980 LOUD NOISE-MUSIC
22-0903155 1095 SKYLINE DR 2022-09-18 00:30:17.420 DISTURBANCE
22-0903153 2715 PRINCE ST 2022-09-18 00:27:40.600 ATTEMPT TO CONTACT
22-0903152 4620 BALMAZ ST 2022-09-18 00:17:08.017 ATTEMPT TO CONTACT
22-0903151 1955 CLARK'S DR 2022-09-18 00:16:34.490 DISTURBANCE
22-0903150 1935 JOHNSTON AV 2022-09-17 23:56:41.367 LOUD NOISE-MUSIC
22-0903149 22-0903149 1375 CHAMPIONS DR 2022-09-17 23:46:16.577 DISTURBANCE
22-0903148 2720 BOWMAN LN 2022-09-17 23:37:42.463 CIVIL MATTER
22-0903147 1014 HARKRIDER ST 2022-09-17 23:00:33.880 ALARM
22-0903146 325 S MITCHELL ST 2022-09-17 22:50:29.280 PROWLER
22-0903145 22-0903145 620 INGRAM VILLAGE DR 2022-09-17 22:48:20.970 DOMESTIC DISTURBANCE
22-0903144 413 S CENTER ST 2022-09-17 22:35:34.493 LOUD NOISE-MUSIC
22-0903143 701 REEDY RD 2022-09-17 22:11:06.180 LOUD NOISE-MUSIC
22-0903142 2100 BROADVIEW AV 2022-09-17 22:01:43.690 SHOTS FIRED
22-0903141 22-0903141 2100 LOOKOUT AV 2022-09-17 22:01:42.867 SHOOTING
22-0903139 380 HARKRIDER ST 2022-09-17 21:49:33.573 CIVIL STAND BY
22-0903138 2507 W SIMMS ST 2022-09-17 21:43:44.620 DOMESTIC DISTURBANCE
22-0903136 1217 JERSEY ST 2022-09-17 21:41:03.990 SUPPLEMENT REPORT CALL
22-0903135 701 REEDY RD 2022-09-17 21:40:58.817 LOUD NOISE-MUSIC
22-0903131 1200 THOMAS G WILSON DR 2022-09-17 21:02:53.267 ALARM - HOLD UP or PANIC
22-0903130 1200 THOMAS G WILSON DR 2022-09-17 21:02:17.007 SUSPICIOUS VEHICLE
22-0903129 3900 DAVE WARD DR 2022-09-17 21:00:37.220 SUSPICIOUS VEHICLE
22-0903127 217 S CENTER ST 2022-09-17 20:49:46.870 911 HANGUP CALL
22-0903125 1110 E OAK ST 2022-09-17 20:38:47.403 CHECKING PERSON
22-0903123 207 WILLOW ST 2022-09-17 20:28:28.657 CHECKING PERSON
22-0903121 1105 PRAIRIE ST 2022-09-17 20:19:08.080 ATTEMPT TO CONTACT
22-0903119 371 FARRIS RD 2022-09-17 20:14:15.777 SHOTS FIRED
22-0903118 22-0903118 1217 JERSEY ST 2022-09-17 20:13:35.370 HARASSMENT
22-0903116 475 ROBINS ST 2022-09-17 20:10:55.547 CRIMINAL MISCHIEF
22-0903115 535 DAVIS ST 2022-09-17 20:01:46.883 SUPPLEMENT REPORT CALL
22-0903114 2051 HARKRIDER ST 2022-09-17 19:57:27.903 ALARM - HOLD UP or PANIC
22-0903112 501 S SALEM RD 2022-09-17 19:39:58.243 TRAFFIC PROBLEM-CONTROL
22-0903108 2799 SALEM RD 2022-09-17 19:18:53.980 ROAD RAGE
22-0903107 22-0903107 550 OLIVER ST 2022-09-17 19:11:21.077 DOMESTIC DISTURBANCE
22-0903106 545 SKYLINE DR 2022-09-17 18:55:40.537 ATTEMPT TO CONTACT
22-0903105 22-0903105 535 DAVIS ST 2022-09-17 18:53:03.817 THEFT OF PROPERTY
22-0903104 124 I40EB 2022-09-17 18:43:53.550 FIRE DEPT ASSIST
22-0903102 1300 GUERNSEY DR 2022-09-17 18:40:43.143 DISTURBANCE
22-0903101 1030 APPLEWOOD DR 2022-09-17 18:24:11.950 ATTEMPT TO CONTACT
22-0903100 1105 SKYLINE DR 2022-09-17 18:23:04.843 TRESPASSING
22-0903098 22-0903098 2845 CLOVER LN 2022-09-17 18:08:13.877 PROPERTY DAMAGE
22-0903097 110 E 6TH ST 2022-09-17 18:06:47.110 ACCIDENT - PROPERTY DAMAGE
22-0903094 3815 DONNELL RIDGE RD 2022-09-17 17:43:34.907 DOMESTIC DISTURBANCE
22-0903093 2400 MARKET PLAZA DR 2022-09-17 17:35:49.963 PARKING VIOLATION
22-0903092 2120 DUNCAN ST 2022-09-17 17:24:36.683 PARKING VIOLATION
22-0903091 1600 STANLEY RUSS RD 2022-09-17 17:05:36.040 ACCIDENT - PROPERTY DAMAGE
22-0903090 1615 HIGHPOINT DR 2022-09-17 17:02:40.763 CHECK ON THE WELFARE
22-0903089 831 NUTTERS CHAPEL RD 2022-09-17 17:01:23.920 SUPPLEMENT REPORT CALL
22-0903088 1560 E OAK ST 2022-09-17 16:53:55.320 ALARM
22-0903087 22-0903087 1010 E OAK ST 2022-09-17 16:53:43.127 LOST-STOLEN LICENSE PLATE
22-0903086 1325 ROBINS ST 2022-09-17 16:44:19.160 FIRE DEPT ASSIST
22-0903084 22-0903084 101 OAK ST 2022-09-17 16:24:27.820 THEFT OF PROPERTY
22-0903081 2570 HARBELLE DR 2022-09-17 15:42:57.517 ALARM
22-0903080 1280 ACUFF LN 2022-09-17 15:40:45.480 PARKING VIOLATION
22-0903077 1250 S AMITY RD 2022-09-17 15:12:09.293 ACCIDENT - PRIVATE PROPERTY
22-0903076 3701 PRINCE ST 2022-09-17 15:11:35.253 STALLED VEHICLE
22-0903075 500 SOUTH GERMAN LN 2022-09-17 14:56:20.113 FELONY WARRANT SERVICE
22-0903074 101 OAK ST 2022-09-17 14:52:00.367 ACCIDENT - PROPERTY DAMAGE
22-0903072 1300 E DAVE WARD DR 2022-09-17 14:50:10.917 ACCIDENT - HIT AND RUN
22-0903071 1819 SIMMS ST 2022-09-17 14:47:16.743 SUPPLEMENT REPORT CALL
22-0903069 1025 S AMITY RD 2022-09-17 14:31:27.603 ACCIDENT - PROPERTY DAMAGE
22-0903067 815 E OAK ST 2022-09-17 14:06:44.473 PROPERTY DAMAGE
22-0903065 100 BRUCE ST 2022-09-17 14:04:47.330 CHECKING VEHICLE
22-0903062 22-0903062 831 NUTTERS CHAPEL RD 2022-09-17 13:30:48.623 TERRORISTIC THREATENING
22-0903061 22-0903061 1155 SKYLINE DR 2022-09-17 13:30:39.777 SHOPLIFTING
22-0903060 86 MARY LN 2022-09-17 13:27:10.947 911 HANGUP CALL
22-0903059 515 HARKRIDER ST 2022-09-17 13:23:26.213 CIVIL MATTER
22-0903058 475 ROBINS ST 2022-09-17 13:23:07.810 TRESPASSING
22-0903055 545 SKYLINE DR 2022-09-17 13:03:22.797 ACCIDENT - PROPERTY DAMAGE
22-0903054 2125 HARKRIDER ST 2022-09-17 12:47:00.710 SUSPICIOUS PERSON
22-0903053 1050 TRILLIUM DR 2022-09-17 12:44:11.923 ALARM
22-0903052 1595 DECLARATION CV 2022-09-17 12:13:09.853 ALARM
22-0903051 655 ELSINGER BLVD 2022-09-17 12:09:16.707 PARKING VIOLATION
22-0903050 1819 SIMMS ST 2022-09-17 12:06:23.597 SUPPLEMENT REPORT CALL
22-0903049 1620 MIDDLE RD 2022-09-17 12:04:31.370 CHECK ON THE WELFARE
22-0903047 1901 E OAK ST 2022-09-17 11:52:40.483 RECKLESS DRIVER
22-0903041 440 WHITNEY WOODS RD 2022-09-17 10:51:47.887 ANIMAL BITE
22-0903040 315 S MITCHELL ST 2022-09-17 10:49:05.210 REPOSSESSION
22-0903039 500 SOUTH GERMAN LN 2022-09-17 10:38:06.077 ATTEMPT TO CONTACT
22-0903035 955 SOUTH GERMAN LN 2022-09-17 10:05:34.600 ATTEMPT TO CONTACT
22-0903033 19 EVE LN 2022-09-17 09:59:35.197 REPOSSESSION
22-0903030 22-0903030 1814 HOGAN LN 2022-09-17 09:46:52.870 BATTERY REPORT
22-0903025 22-0903025 2350 SANDERS ST 2022-09-17 09:06:04.783 FELONY WARRANT SERVICE
22-0903024 1161 OLD MORRILTON HWY 2022-09-17 09:03:36.967 SUPPLEMENT REPORT CALL
22-0903023 2255 KRYSTAL KREEK DR 2022-09-17 09:02:05.983 ATTEMPT TO CONTACT
22-0903022 235 FARRIS RD 2022-09-17 08:48:25.653 ALARM
22-0903021 810 AMITY RD 2022-09-17 08:48:09.597 ALARM
22-0903015 400 SAVANNAH PARK CIR 2022-09-17 08:27:08.690 ALARM
22-0903014 2255 KRYSTAL KREEK DR 2022-09-17 07:53:38.793 BURGLARY
22-0903012 545 E DAVE WARD DR 2022-09-17 07:36:48.590 DISTURBANCE
22-0903007 1155 SKYLINE DR 2022-09-17 06:58:53.400 VEHICLE TOW
22-0903006 6 W J SOWDER DR 2022-09-17 05:11:42.503 AGENCY ASSIST
22-0903005 2022-09-17 05:02:01.287 VEHICLE TOW
22-0903004 2022-09-17 05:02:00.243 VEHICLE TOW
22-0903003 1155 SKYLINE DR 2022-09-17 05:01:44.087 VEHICLE TOW
22-0903002 1105 PRAIRIE ST 2022-09-17 04:37:14.323 ATTEMPT TO CONTACT
22-0903001 22-0903001 305 E OAK ST 2022-09-17 03:45:10.860 DISTURBANCE
22-0903000 22-0903000 1500 HARKRIDER ST 2022-09-17 03:39:05.087 STALLED VEHICLE
22-0902999 501 ELSINGER BLVD 2022-09-17 03:38:36.247 CHECKING VEHICLE
22-0902997 755 ELSINGER BLVD 2022-09-17 03:33:44.427 CHECKING VEHICLE
22-0902993 755 ELSINGER BLVD 2022-09-17 03:23:40.827 CHECKING VEHICLE
22-0902992 511 OAK ST 2022-09-17 03:22:29.700 CHECKING PERSON
22-0902991 899 ELSINGER BLVD 2022-09-17 03:17:32.667 RECKLESS DRIVER
22-0902988 1405 S DONAGHEY AV 2022-09-17 02:00:46.387 AGENCY ASSIST
22-0902985 22-0902985 1 CADRON SETTLEMENT PARK RD 2022-09-17 01:33:33.960 CHECKING VEHICLE
22-0902984 646 S HARKRIDER DR 2022-09-17 01:27:53.373 SUSPICIOUS PERSON
22-0902983 1 CADRON SETTLEMENT PARK RD 2022-09-17 01:13:15.940 CHECKING VEHICLE
22-0902979 22-0902979 1160 S SALEM RD 2022-09-17 01:06:25.203 CHECKING PERSON
22-0902977 475 ROBINS ST 2022-09-17 00:38:39.913 BARKING DOG COMPLAINT
22-0902976 1705 S SALEM RD 2022-09-17 00:34:18.260 VEHICLE TOW
22-0902975 1705 S SALEM RD 2022-09-17 00:32:48.743 VEHICLE TOW
22-0902974 2199 CALDWELL ST 2022-09-17 00:32:11.377 CHECKING PERSON
22-0902969 235 FARRIS RD 2022-09-16 23:46:43.647 DISTURBANCE
22-0902968 2700 TYLER ST 2022-09-16 23:40:57.063 LOUD NOISE-MUSIC
22-0902967 619 3RD AV 2022-09-16 23:40:38.423 REPOSSESSION
22-0902966 235 FARRIS RD 2022-09-16 23:39:42.910 DISTURBANCE
22-0902965 215 FARRIS RD 2022-09-16 23:14:16.517 ACCIDENT - PRIVATE PROPERTY
22-0902964 220 SKYLINE DR 2022-09-16 23:14:09.027 SUSPICIOUS VEHICLE
22-0902961 1200 DEER ST 2022-09-16 22:58:37.717 CHECKING PERSON
22-0902960 1705 S SALEM RD 2022-09-16 22:33:18.883 VEHICLE TOW
22-0902959 1705 S SALEM RD 2022-09-16 22:32:25.420 VEHICLE TOW
22-0902958 3820 DAVE WARD DR 2022-09-16 22:31:06.813 ALARM
22-0902957 129 I40WB 2022-09-16 22:25:08.607 CHECK ON THE WELFARE
22-0902956 22-0902956 2550 PRINCE ST 2022-09-16 21:43:42.613 CRIMINAL MISCHIEF
22-0902955 22-0902955 129 I40WB 2022-09-16 21:42:33.670 ROAD RAGE
22-0902954 300 S DONAGHEY AV 2022-09-16 21:31:31.053 SUPPLEMENT REPORT CALL
22-0902953 22-0902953 2218 LEE AV 2022-09-16 21:16:04.850 TRESPASSING
22-0902951 2799 SALEM RD 2022-09-16 21:05:40.043 RECKLESS DRIVER
22-0902950 5475 LOST CANYON DR 2022-09-16 21:02:58.837 BARKING DOG COMPLAINT
22-0902948 2300 PRINCE ST 2022-09-16 21:01:22.767 PARKING VIOLATION
22-0902947 2550 PRINCE ST 2022-09-16 20:55:17.530 TRESPASSING
22-0902946 270 E SKYLINE DR 2022-09-16 20:53:20.173 CHECK ON THE WELFARE
22-0902945 655 ELSINGER BLVD 2022-09-16 20:49:47.483 TRESPASSING
22-0902944 723 PARKWAY ST 2022-09-16 20:19:38.013 CHECK ON THE WELFARE
22-0902943 22-0902943 2730 DAVE WARD DR 2022-09-16 20:15:51.013 MISSING PERSON
22-0902942 22-0902942 300 S DONAGHEY AV 2022-09-16 20:07:39.580 BURGLARY
22-0902934 22-0902934 290 GREAT FALLS 2022-09-16 19:22:17.890 BURGLARY
22-0902933 1117 E OAK ST 2022-09-16 19:16:06.160 INTOXICATED DRIVER
22-0902932 1205 BULLDOG DR 2022-09-16 18:55:54.820 CHECK ON THE WELFARE
22-0902931 1 PAMELA LN 2022-09-16 18:52:26.220 ACCIDENT - PROPERTY DAMAGE
22-0902930 1025 S DONAGHEY AV 2022-09-16 18:40:19.100 DOMESTIC DISTURBANCE
22-0902929 22-0902929 955 SOUTH GERMAN LN 2022-09-16 18:32:44.630 DISTURBANCE
22-0902927 205 E OAK ST 2022-09-16 18:22:48.060 HARASSMENT
22-0902924 900 EXCHANGE AV 2022-09-16 17:57:59.317 ACCIDENT - PROPERTY DAMAGE
22-0902922 1626 DAVIS ST 2022-09-16 17:42:44.647 CIVIL MATTER
22-0902921 2985 CRAWFORD LP 2022-09-16 17:38:38.353 ALARM
22-0902919 1 LOWER RIDGE RD 2022-09-16 17:32:18.867 ACCIDENT - PROPERTY DAMAGE
22-0902918 1410 SILVER FALLS 2022-09-16 17:31:12.880 CIVIL STAND BY
22-0902916 1302 E OAK ST 2022-09-16 17:29:00.087 ACCIDENT - PERSONAL INJURY
22-0902915 1620 MIDDLE RD 2022-09-16 17:23:57.990 DISTURBANCE
22-0902913 22-0902913 1819 SIMMS ST 2022-09-16 16:57:44.920 BATTERY REPORT
22-0902912 22-0902912 20 AZALEA LP 2022-09-16 16:56:44.750 ILLEGAL DUMPING
22-0902911 22-0902911 4125 BAY HILL DR 2022-09-16 16:47:57.210 THEFT OF PROPERTY
22-0902910 22-0902910 627 FRONT ST 2022-09-16 16:47:15.193 THEFT OF PROPERTY
22-0902908 1295 JOYNER DR 2022-09-16 16:40:30.257 CHECK ON THE WELFARE
22-0902906 1701 HARKRIDER ST 2022-09-16 16:21:01.787 ACCIDENT - PROPERTY DAMAGE
22-0902904 101 EAST GERMAN LN 2022-09-16 16:12:36.817 RECKLESS DRIVER
22-0902903 450 ROBINS ST 2022-09-16 16:00:26.630 DOMESTIC DISTURBANCE
22-0902902 170 EXCHANGE AV 2022-09-16 16:00:13.050 CHECKING PERSON
22-0902901 845 CRESTLINER DR 2022-09-16 15:58:17.713 DISTURBANCE
22-0902900 899 LOCUST AV 2022-09-16 15:57:44.067 TRAFFIC PROBLEM-CONTROL
22-0902899 1640 SOUTHERN HILLS DR 2022-09-16 15:49:49.787 ALARM
22-0902897 22-0902897 1815 PRINCE ST 2022-09-16 15:44:38.590 TERRORISTIC THREATENING
22-0902896 1918 ROBINSON AV 2022-09-16 15:41:40.527 VEHICLE TOW
22-0902894 1105 PRAIRIE ST 2022-09-16 15:22:37.570 MISDEMEANOR WARRANT SERVICE
22-0902892 1579 E OAK ST 2022-09-16 15:08:19.557 SUSPICIOUS PERSON
22-0902891 2001 FLORENCE MATTISON DR 2022-09-16 15:06:29.010 TERRORISTIC THREATENING
22-0902890 1902 MILLWOOD DR 2022-09-16 15:04:11.990 CIVIL MATTER
22-0902889 3715 PRINCE ST 2022-09-16 15:00:40.247 VEHICLE TOW
22-0902888 2022-09-16 14:58:03.897 SUPPLEMENT REPORT CALL
22-0902886 2302 COLLEGE AV 2022-09-16 14:54:34.053 SUPPLEMENT REPORT CALL
22-0902885 22-0902885 810 AMITY RD 2022-09-16 14:53:49.613 THEFT OF SERVICES
22-0902884 380 HARKRIDER ST 2022-09-16 14:47:59.673 ACCIDENT - PRIVATE PROPERTY
22-0902881 602 4TH AV 2022-09-16 14:28:50.493 SUPPLEMENT REPORT CALL
22-0902880 475 ROBINS ST 2022-09-16 14:25:09.887 CIVIL MATTER
22-0902879 22-0902879 4095 PRINCE ST 2022-09-16 14:22:41.110 TRESPASSING
22-0902878 421 E OAK ST 2022-09-16 14:15:00.977 ACCIDENT - PROPERTY DAMAGE
22-0902877 3300 PEBBLE BEACH DR 2022-09-16 14:08:13.317 VEHICLE TOW
22-0902875 3625 EMERY CV 2022-09-16 14:03:29.743 CHECK ON THE WELFARE
22-0902874 1025 S AMITY RD 2022-09-16 14:02:01.317 ACCIDENT - PROPERTY DAMAGE
22-0902872 22-0902872 1306 S DONAGHEY AV 2022-09-16 13:55:20.897 FRAUD
22-0902871 22-0902871 1306 S DONAGHEY AV 2022-09-16 13:55:12.757 THEFT OF PROPERTY
22-0902870 2022-09-16 13:54:43.873 ATTEMPT TO CONTACT
22-0902869 600 SKYLINE DR 2022-09-16 13:53:51.327 RECKLESS DRIVER
22-0902868 1795 BILL LUCY DR 2022-09-16 13:47:07.013 AGENCY ASSIST
22-0902867 22-0902867 150 AMITY RD 2022-09-16 13:41:57.007 FOUND PROPERTY
22-0902865 2200 MEADOWLAKE RD 2022-09-16 13:37:17.847 CHECK ON THE WELFARE
22-0902863 22-0902863 1306 S DONAGHEY AV 2022-09-16 13:32:04.647 THEFT OF PROPERTY
22-0902860 2300 PRINCE ST 2022-09-16 13:24:08.863 ACCIDENT - PRIVATE PROPERTY
22-0902859 421 E OAK ST 2022-09-16 13:21:40.313 ATTEMPT TO CONTACT
22-0902856 3900 DAVE WARD DR 2022-09-16 13:16:10.217 ACCIDENT - PRIVATE PROPERTY
22-0902855 22-0902855 450 E DAVE WARD DR 2022-09-16 13:15:49.783 THEFT OF VEHICLE
22-0902854 22-0902854 1815 PRINCE ST 2022-09-16 13:11:52.393 MINOR IN POSSESSION
22-0902853 22-0902853 1815 PRINCE ST 2022-09-16 13:11:07.640 TERRORISTIC THREATENING
22-0902850 22-0902850 1835 OTT MEMORIAL BLVD 2022-09-16 12:41:12.083 MISDEMEANOR WARRANT SERVICE
22-0902848 1220 E OAK ST 2022-09-16 12:24:27.643 ACCIDENT - PROPERTY DAMAGE
22-0902847 220 E OAK ST 2022-09-16 12:15:37.487 SUPPLEMENT REPORT CALL
22-0902846 1705 S SALEM RD 2022-09-16 12:14:26.220 VEHICLE TOW
22-0902845 1254 HUNTER ST 2022-09-16 12:12:29.920 REPOSSESSION
22-0902844 22-0902844 4540 SAWGRASS CV 2022-09-16 12:12:01.697 THEFT OF SERVICES
22-0902843 501 ELSINGER BLVD 2022-09-16 12:03:53.483 SUSPICIOUS PERSON
22-0902842 1205 E SKYLINE DR 2022-09-16 12:03:06.467 ATTEMPT TO CONTACT
22-0902840 200 E DAVE WARD DR 2022-09-16 11:54:32.157 ACCIDENT - PERSONAL INJURY
22-0902839 2200 STOUT ST 2022-09-16 11:50:14.943 FIRE DEPT ASSIST
22-0902837 1952 BRUCE ST 2022-09-16 11:43:08.913 CHECK ON THE WELFARE
22-0902836 1250 S AMITY RD 2022-09-16 11:39:17.287 CITIZEN ASSIST
22-0902834 1601 SOUTH GERMAN LN 2022-09-16 11:19:13.430 ACCIDENT - PEDESTRIAN
22-0902833 1156 FRONT ST 2022-09-16 11:14:31.430 ACCIDENT - PROPERTY DAMAGE
22-0902832 1105 E OAK ST 2022-09-16 11:10:58.837 STALLED VEHICLE
22-0902830 2650 DONAGHEY AV 2022-09-16 10:56:37.270 HARASSMENT
22-0902826 1300 E DAVE WARD DR 2022-09-16 10:32:34.730 ACCIDENT - PROPERTY DAMAGE
22-0902823 2200 MEADOWLAKE RD 2022-09-16 10:19:54.317 ACCIDENT - PRIVATE PROPERTY
22-0902819 145 AIKMAN PASS 2022-09-16 09:52:08.200 ATTEMPT TO CONTACT
22-0902817 22-0902817 1090 SKYLINE DR 2022-09-16 09:50:38.723 CHECK ON THE WELFARE
22-0902816 3034 DONNELL RIDGE RD 2022-09-16 09:48:06.680 REPOSSESSION
22-0902812 22-0902812 500 SOUTH GERMAN LN 2022-09-16 09:36:54.490 MISDEMEANOR WARRANT SERVICE
22-0902811 22-0902811 500 SOUTH GERMAN LN 2022-09-16 09:36:22.633 MISDEMEANOR WARRANT SERVICE
22-0902810 22-0902810 1201 DONAGHEY AV 2022-09-16 09:35:56.257 HARASSMENT
22-0902809 22-0902809 801 LOCUST AV 2022-09-16 09:34:34.553 MISDEMEANOR WARRANT SERVICE
22-0902807 22-0902807 1165 JIM'S LN 2022-09-16 09:30:28.367 BREAKING OR ENTERING
22-0902800 1902 MILLWOOD DR 2022-09-16 09:11:19.250 CIVIL STAND BY
22-0902795 475 ROBINS ST 2022-09-16 08:50:13.917 ATTEMPT TO CONTACT
22-0902793 22-0902793 2300 PRINCE ST 2022-09-16 08:44:12.277 FIGHT
22-0902792 715 MILAM DR 2022-09-16 08:43:55.323 SUPPLEMENT REPORT CALL
22-0902791 22-0902791 3100 SALEM RD 2022-09-16 08:28:59.140 PROPERTY DAMAGE
22-0902789 22-0902789 1632 DONAGHEY AV 2022-09-16 08:21:00.980 THEFT OF PROPERTY
22-0902787 2135 HARKRIDER ST 2022-09-16 07:54:28.617 ACCIDENT - PROPERTY DAMAGE
22-0902786 1400 MANOR ST 2022-09-16 07:51:55.987 ACCIDENT - PROPERTY DAMAGE
22-0902785 145 AIKMAN PASS 2022-09-16 07:42:34.333 CHECK ON THE WELFARE
22-0902784 22-0902784 1400 PADGETT RD 2022-09-16 07:40:10.883 FOUND PROPERTY
22-0902783 20 KINLEY DR 2022-09-16 05:59:32.797 ATTEMPT TO CONTACT
22-0902782 2050 DAVE WARD DR 2022-09-16 04:51:32.790 DISTURBANCE
22-0902781 22-0902781 3430 IRBY DR 2022-09-16 04:45:15.100 LOUD NOISE-MUSIC
22-0902779 1430 SILVER FALLS 2022-09-16 03:16:17.333 BARKING DOG COMPLAINT
22-0902777 2420 BROADVIEW AV 2022-09-16 03:11:16.373 CHECKING VEHICLE
22-0902774 205 FARRIS RD 2022-09-16 02:47:41.193 FIRE DEPT ASSIST
22-0902773 235 FARRIS RD 2022-09-16 02:12:24.190 TERRORISTIC THREATENING
22-0902770 1020 FRONT ST 2022-09-16 02:01:21.667 LOUD NOISE-MUSIC
22-0902769 581 HARKRIDER ST 2022-09-16 01:59:18.220 CHECKING VEHICLE
22-0902768 1611 E OAK ST 2022-09-16 01:51:20.823 ATTEMPT TO CONTACT
22-0902767 1155 SKYLINE DR 2022-09-16 01:44:30.053 VEHICLE TOW
22-0902766 1155 SKYLINE DR 2022-09-16 01:43:19.587 VEHICLE TOW
22-0902764 1315 BILTMORE GARDENS 2022-09-16 01:22:28.780 REPOSSESSION
22-0902763 860 ELSINGER BLVD 2022-09-16 01:18:57.143 CHECKING BUILDING
22-0902761 1612 CALDWELL ST 2022-09-16 00:47:12.423 BARKING DOG COMPLAINT
22-0902760 22-0902760 220 S ASH ST 2022-09-16 00:02:41.073 DOMESTIC DISTURBANCE
22-0902759 1775 WHITTEN RD 2022-09-16 00:01:23.517 ACCIDENT - PRIVATE PROPERTY
22-0902754 301 DONAGHEY AV 2022-09-15 23:35:35.010 ACCIDENT - PROPERTY DAMAGE
22-0902747 625 TOMMY LEWIS DR 2022-09-15 22:16:55.087 CHECK ON THE WELFARE
22-0902743 1155 SKYLINE DR 2022-09-15 22:05:26.357 ACCIDENT - PRIVATE PROPERTY
22-0902741 1902 MILLWOOD DR 2022-09-15 21:48:11.003 CIVIL MATTER
22-0902740 2611 COLLEGE AV 2022-09-15 21:46:40.150 SUSPICIOUS PERSON
22-0902738 100 AMITY RD 2022-09-15 21:36:53.640 SUPPLEMENT REPORT CALL
22-0902734 1720 TUSCANY DR 2022-09-15 21:08:28.463 SUSPICIOUS VEHICLE
22-0902732 1020 GARLAND ST 2022-09-15 20:58:29.350 SUSPICIOUS ACTIVITY
22-0902730 1815 E OAK ST 2022-09-15 20:51:00.110 ALARM - BANK
22-0902726 385 HOGAN LN 2022-09-15 20:31:51.430 CHECKING VEHICLE
22-0902725 2501 DAVE WARD DR 2022-09-15 20:29:31.303 SUPPLEMENT REPORT CALL
22-0902723 1815 E OAK ST 2022-09-15 20:23:19.080 ALARM - BANK
22-0902720 1200 E DAVE WARD DR 2022-09-15 20:13:34.540 SUPPLEMENT REPORT CALL
22-0902719 2100 MEADOWLAKE RD 2022-09-15 20:06:54.103 RECKLESS DRIVER
22-0902718 3815 DONNELL RIDGE RD 2022-09-15 20:02:01.350 LOUD NOISE-MUSIC
22-0902714 2022-09-15 19:43:29.880 RECOVERED PROPERTY
22-0902708 849 ENTERPRISE AV 2022-09-15 18:34:56.217 STALLED VEHICLE
22-0902707 3099 SALEM RD 2022-09-15 18:28:57.127 SUPPLEMENT REPORT CALL
22-0902706 3099 SALEM RD 2022-09-15 18:21:17.437 ACCIDENT - PROPERTY DAMAGE
22-0902705 1105 PRAIRIE ST 2022-09-15 18:04:31.843 ATTEMPT TO CONTACT
22-0902703 1700 WASHINGTON AV 2022-09-15 17:51:13.843 STALLED VEHICLE
22-0902702 2905 PEBBLE BEACH DR 2022-09-15 17:38:41.990 SUPPLEMENT REPORT CALL
22-0902700 1200 DAVE WARD DR 2022-09-15 17:36:34.273 ACCIDENT - PERSONAL INJURY
22-0902696 2455 WASHINGTON AV 2022-09-15 17:18:29.263 SUSPICIOUS VEHICLE
22-0902694 1305 DAVE WARD DR 2022-09-15 16:58:51.730 ACCIDENT - PRIVATE PROPERTY
22-0902692 3900 DAVE WARD DR 2022-09-15 16:35:07.970 ACCIDENT - PERSONAL INJURY
22-0902691 1105 PRAIRIE ST 2022-09-15 16:32:25.283 ATTEMPT TO CONTACT
22-0902690 1621 DONAGHEY AV 2022-09-15 16:30:51.567 FOUND PROPERTY
22-0902689 2001 FLORENCE MATTISON DR 2022-09-15 16:22:26.003 ATTEMPT TO CONTACT
22-0902685 4055 GLENWOOD DR 2022-09-15 15:45:04.190 CITIZEN ASSIST
22-0902684 22-0902684 1105 PRAIRIE ST 2022-09-15 15:40:39.640 THEFT OF PROPERTY
22-0902681 22-0902681 2850 PRINCE ST 2022-09-15 15:16:22.600 BREAKING OR ENTERING
22-0902678 22-0902678 2905 PEBBLE BEACH DR 2022-09-15 14:47:52.973 HARASSING COMMUNICATIONS
22-0902677 1105 SKYLINE DR 2022-09-15 14:44:46.130 TRESPASSING
22-0902676 3400 IRBY DR 2022-09-15 14:44:29.573 FOUND PROPERTY
22-0902674 1201 STURGIS RD 2022-09-15 14:28:59.473 ATTEMPT TO CONTACT
22-0902672 207 WILLOW ST 2022-09-15 14:24:42.103 SUPPLEMENT REPORT CALL
22-0902670 22-0902670 401 2ND AV 2022-09-15 14:21:26.983 ATTEMPT TO CONTACT
22-0902668 1200 THOMAS G WILSON DR 2022-09-15 14:16:12.057 ACCIDENT - PRIVATE PROPERTY
22-0902667 22-0902667 1015 REYNOLDS AV 2022-09-15 14:01:08.293 THEFT OF PROPERTY
22-0902666 801 LOCUST AV 2022-09-15 13:59:56.910 MISDEMEANOR WARRANT SERVICE
22-0902665 655 ELSINGER BLVD 2022-09-15 13:55:50.480 SUSPICIOUS PERSON
22-0902664 22-0902664 1002 E OAK ST 2022-09-15 13:50:08.090 FOUND PROPERTY
22-0902663 530 S DONAGHEY AV 2022-09-15 13:39:32.803 SUPPLEMENT REPORT CALL
22-0902662 35 EVE LN 2022-09-15 13:36:32.547 FRAUD
22-0902661 22-0902661 510 SOUTH GERMAN LN 2022-09-15 13:31:02.377 PURSUIT
22-0902660 22-0902660 1105 PRAIRIE ST 2022-09-15 13:30:15.867 ACCIDENT - PRIVATE PROPERTY
22-0902658 22-0902658 35 EVE LN 2022-09-15 13:28:59.410 THEFT OF PROPERTY
22-0902657 3090 CRAWFORD LP 2022-09-15 13:11:58.307 ALARM
22-0902656 2490 SAPPHIRE DR 2022-09-15 13:05:10.377 ATTEMPT TO CONTACT
22-0902655 1220 GIST ST 2022-09-15 13:00:54.110 ACCIDENT - PROPERTY DAMAGE
22-0902652 22-0902652 2425 SANDERS ST 2022-09-15 12:58:50.880 FOUND PROPERTY
22-0902651 22-0902651 35 EVE LN 2022-09-15 12:54:48.500 FRAUD
22-0902650 530 S DONAGHEY AV 2022-09-15 12:54:46.493 SUPPLEMENT REPORT CALL
22-0902649 2732 PRINCE ST 2022-09-15 12:50:24.293 ACCIDENT - PEDESTRIAN
22-0902648 22-0902648 2311 BRIDGEGATE DR 2022-09-15 12:43:12.343 THEFT OF PROPERTY
22-0902647 22-0902647 3700 JEANNA DR 2022-09-15 12:40:59.250 TERRORISTIC THREATENING
22-0902646 22-0902646 1224 JERSEY ST 2022-09-15 12:29:39.723 TRESPASSING
22-0902645 820 E OAK ST 2022-09-15 12:29:19.480 ACCIDENT - PRIVATE PROPERTY
22-0902644 3100 IRBY DR 2022-09-15 12:27:26.303 ANIMAL BITE
22-0902643 19 MORNINGSIDE DR 2022-09-15 12:16:15.020 CITY ORDINANCE VIOLATION
22-0902641 325 AUGUSTA AV 2022-09-15 12:13:02.460 VEHICLE TOW
22-0902640 207 WILLOW ST 2022-09-15 12:08:18.440 UNAUTHORIZED USE OF MOTOR VEHICLE
22-0902636 22-0902636 2755 TYLER ST 2022-09-15 11:54:39.343 MISDEMEANOR WARRANT SERVICE
22-0902635 500 SOUTH GERMAN LN 2022-09-15 11:53:59.287 MISDEMEANOR WARRANT SERVICE
22-0902634 22-0902634 1895 DAVE WARD DR 2022-09-15 11:52:10.833 ATTEMPT TO CONTACT
22-0902633 3430 IRBY DR 2022-09-15 11:49:13.777 CRIMINAL MISCHIEF
22-0902631 3188 AMANDA DR 2022-09-15 11:30:54.053 ALARM
22-0902630 1500 HARKRIDER ST 2022-09-15 11:27:07.430 ACCIDENT - PROPERTY DAMAGE
22-0902627 2300 PRINCE ST 2022-09-15 11:13:29.550 ACCIDENT - PRIVATE PROPERTY
22-0902626 22-0902626 2755 TYLER ST 2022-09-15 11:13:23.337 ACCIDENT - PROPERTY DAMAGE
22-0902624 207 WILLOW ST 2022-09-15 11:08:44.617 UNAUTHORIZED USE OF MOTOR VEHICLE
22-0902623 1090 SKYLINE DR 2022-09-15 10:58:16.903 MISSING PERSON
22-0902622 22-0902622 1090 SKYLINE DR 2022-09-15 10:40:52.827 TERRORISTIC THREATENING
22-0902621 22-0902621 3005 COLLINS DR 2022-09-15 10:36:23.130 THEFT OF SERVICES
22-0902619 201 DONAGHEY AV 2022-09-15 09:59:43.860 VEHICLE TOW
22-0902617 2245 ELDRIDGE LN 2022-09-15 09:52:50.863 ATTEMPT TO CONTACT
22-0902616 22-0902616 375 DENISON ST 2022-09-15 09:51:29.947 THEFT OF PROPERTY
22-0902615 409 CENTER ST 2022-09-15 09:49:42.427 SUPPLEMENT REPORT CALL
22-0902614 475 ROBINS ST 2022-09-15 09:45:37.643 911 HANGUP CALL
22-0902613 22-0902613 1400 PADGETT RD 2022-09-15 09:43:50.720 TERRORISTIC THREATENING
22-0902612 22-0902612 150 E SIEBENMORGEN RD 2022-09-15 09:35:49.187 ABUSE
22-0902611 101 HARKRIDER ST 2022-09-15 09:33:37.367 STALLED VEHICLE
22-0902610 1775 OLD MORRILTON HWY 2022-09-15 09:27:15.730 ACCIDENT - PROPERTY DAMAGE
22-0902608 1105 PRAIRIE ST 2022-09-15 09:24:10.950 SUPPLEMENT REPORT CALL
22-0902607 1111 MAIN ST 2022-09-15 09:18:51.887 ACCIDENT - PROPERTY DAMAGE
22-0902602 955 E OAK ST 2022-09-15 08:55:06.600 SUPPLEMENT REPORT CALL
22-0902601 3430 IRBY DR 2022-09-15 08:53:09.650 CRIMINAL MISCHIEF
22-0902600 1270 HARRISON ST 2022-09-15 08:47:41.610 SUPPLEMENT REPORT CALL
22-0902599 1090 SKYLINE DR 2022-09-15 08:43:08.687 CHECK ON THE WELFARE
22-0902598 1931 MARTIN ST 2022-09-15 08:40:36.827 CHECK ON THE WELFARE
22-0902597 1105 PRAIRIE ST 2022-09-15 08:36:19.363 ATTEMPT TO CONTACT
22-0902596 2100 MEADOWLAKE RD 2022-09-15 08:27:46.567 ALARM
22-0902594 22-0902594 3100 IRBY DR 2022-09-15 08:24:41.583 HARASSMENT
22-0902592 1305 DAVE WARD DR 2022-09-15 08:08:40.440 ALARM
22-0902591 1540 WINSTEAD DR 2022-09-15 08:06:58.080 ALARM
22-0902586 22-0902586 715 MILAM DR 2022-09-15 07:03:48.187 BREAKING OR ENTERING
22-0902584 22-0902584 1270 HARRISON ST 2022-09-15 06:49:43.403 DISTURBANCE
22-0902582 3305 TUSCARORA DR 2022-09-15 06:04:17.663 SUSPICIOUS VEHICLE
22-0902581 1620 MIDDLE RD 2022-09-15 05:53:12.083 LOUD NOISE-MUSIC
22-0902578 1505 STURGIS RD 2022-09-15 04:48:25.040 TRESPASSING
22-0902575 2010 RICH SMITH LN 2022-09-15 04:37:14.843 CHECK ON THE WELFARE
22-0902573 2420 BROADVIEW AV 2022-09-15 04:30:06.213 CHECKING VEHICLE
22-0902564 1601 HOGAN LN 2022-09-15 03:05:24.080 REPOSSESSION
22-0902561 1155 SKYLINE DR 2022-09-15 02:50:08.517 VEHICLE TOW
22-0902560 3800 DAVE WARD DR 2022-09-15 02:34:08.820 ALARM
22-0902556 1635 ARDEN LN 2022-09-15 01:23:15.957 THEFT OF PROPERTY
22-0902555 2820 COLLEGE AV 2022-09-15 00:59:59.530 LOUD NOISE-MUSIC
22-0902554 3430 IRBY DR 2022-09-15 00:57:18.707 FOUND PROPERTY
22-0902553 22-0902553 1525 CLIFTON ST 2022-09-15 00:46:05.133 CHECKING VEHICLE
22-0902551 3800 DAVE WARD DR 2022-09-15 00:34:10.050 ALARM
22-0902550 955 SOUTH GERMAN LN 2022-09-15 00:33:37.953 TRESPASSING
22-0902549 2824 PRINCE ST 2022-09-15 00:30:02.520 CHECKING BUILDING
22-0902548 22-0902548 2022-09-15 00:17:57.420 MISDEMEANOR WARRANT SERVICE
22-0902546 22-0902546 2245 ELDRIDGE LN 2022-09-15 00:06:29.030 PROPERTY DAMAGE
22-0902544 1120 EAST GERMAN LN 2022-09-15 00:01:59.080 ALARM
22-0902543 3820 DAVE WARD DR 2022-09-15 00:01:55.653 CHECKING BUILDING
Call Number Case Number Address Call Time Incident Type

General Contacts

POLICE HEADQUARTERS
1105 Prairie Street
Conway, AR 72032

Conway Police Department


  911 (EMERGENCIES ONLY)

  501.450.6120 (non-emergency)

   

City of Conway

We, the members of the Conway Police Department, are committed to protecting and serving the citizens of Conway, Arkansas. That is our highest calling, as we pledge to join hands with others in carrying out our sworn duty to uphold the law.

Chief William Tapley

Latest Tweets